Wetterdaten: Donnerstag, 12.01.2023
Datum Zeit Temp. Aussen Temp. o. S. Temp +5cm Feuchte Auss Luftdruck Regen Sonnenschein Regendauer Solar Windben Empfang
12.01.2023 00:00 8,3 C 7,2 C 3,3 C 92 % 1012,2 hPa 0,0 l/m 0 min 2 min 0 W/m 22,5 km/h (4 Bft) 100,00 %
12.01.2023 00:02 8,3 C 7,2 C 3,3 C 92 % 1012,3 hPa 0,0 l/m 0 min 2 min 0 W/m 19,3 km/h (3 Bft) 97,06 %
12.01.2023 00:04 8,3 C 7,2 C 3,3 C 91 % 1012,3 hPa 0,0 l/m 0 min 2 min 0 W/m 25,7 km/h (4 Bft) 97,87 %
12.01.2023 00:07 8,3 C 7,2 C 3,3 C 92 % 1012,3 hPa 0,0 l/m 0 min 3 min 0 W/m 32,2 km/h (5 Bft) 100,00 %
12.01.2023 00:08 8,3 C 7,2 C 3,3 C 92 % 1012,3 hPa 0,2 l/m 0 min 1 min 0 W/m 29,0 km/h (5 Bft) 100,00 %
12.01.2023 00:12 8,4 C 7,2 C 3,3 C 92 % 1012,3 hPa 0,0 l/m 0 min 4 min 0 W/m 29,0 km/h (5 Bft) 100,00 %
12.01.2023 00:14 8,4 C 7,2 C 3,3 C 92 % 1012,5 hPa 0,0 l/m 0 min 2 min 0 W/m 38,6 km/h (5 Bft) 100,00 %
12.01.2023 00:16 8,4 C 7,2 C 3,3 C 92 % 1012,4 hPa 0,0 l/m 0 min 2 min 0 W/m 38,6 km/h (5 Bft) 100,00 %
12.01.2023 00:18 8,4 C 7,2 C 3,3 C 92 % 1012,3 hPa 0,0 l/m 0 min 2 min 0 W/m 22,5 km/h (4 Bft) 97,87 %
12.01.2023 00:20 8,3 C 7,2 C 3,3 C 92 % 1012,3 hPa 0,2 l/m 0 min 2 min 0 W/m 29,0 km/h (5 Bft) 93,48 %
12.01.2023 00:22 8,3 C 6,7 C 3,3 C 92 % 1012,4 hPa 0,0 l/m 0 min 2 min 0 W/m 25,7 km/h (4 Bft) 100,00 %
12.01.2023 00:24 8,3 C 6,7 C 3,3 C 92 % 1012,3 hPa 0,0 l/m 0 min 2 min 0 W/m 25,7 km/h (4 Bft) 97,87 %
12.01.2023 00:26 8,3 C 6,7 C 3,3 C 92 % 1012,4 hPa 0,0 l/m 0 min 2 min 0 W/m 19,3 km/h (3 Bft) 97,87 %
12.01.2023 00:28 8,3 C 6,7 C 3,3 C 92 % 1012,4 hPa 0,0 l/m 0 min 2 min 0 W/m 16,1 km/h (3 Bft) 95,74 %
12.01.2023 00:30 8,3 C 6,7 C 3,3 C 92 % 1012,4 hPa 0,0 l/m 0 min 2 min 0 W/m 38,6 km/h (5 Bft) 97,87 %
12.01.2023 00:32 8,3 C 7,2 C 3,9 C 92 % 1012,4 hPa 0,0 l/m 0 min 2 min 0 W/m 22,5 km/h (4 Bft) 97,83 %
12.01.2023 00:34 8,3 C 7,2 C 3,3 C 92 % 1012,5 hPa 0,2 l/m 0 min 2 min 0 W/m 41,8 km/h (6 Bft) 95,74 %
12.01.2023 00:36 8,3 C 7,2 C 3,3 C 93 % 1012,3 hPa 0,0 l/m 0 min 2 min 0 W/m 32,2 km/h (5 Bft) 97,87 %
12.01.2023 00:38 8,3 C 7,2 C 3,3 C 93 % 1012,3 hPa 0,0 l/m 0 min 2 min 0 W/m 22,5 km/h (4 Bft) 97,87 %
12.01.2023 00:40 8,3 C 7,2 C 3,9 C 93 % 1012,3 hPa 0,0 l/m 0 min 2 min 0 W/m 22,5 km/h (4 Bft) 97,87 %
12.01.2023 00:42 8,3 C 7,2 C 3,9 C 93 % 1012,3 hPa 0,0 l/m 0 min 2 min 0 W/m 19,3 km/h (3 Bft) 97,87 %
12.01.2023 00:44 8,3 C 7,2 C 3,9 C 93 % 1012,3 hPa 0,0 l/m 0 min 2 min 0 W/m 19,3 km/h (3 Bft) 97,87 %
12.01.2023 00:46 8,3 C 7,2 C 3,9 C 93 % 1012,4 hPa 0,0 l/m 0 min 2 min 0 W/m 22,5 km/h (4 Bft) 97,83 %
12.01.2023 00:48 8,2 C 7,2 C 3,9 C 93 % 1012,2 hPa 0,0 l/m 0 min 2 min 0 W/m 22,5 km/h (4 Bft) 95,74 %
12.01.2023 00:50 8,2 C 7,2 C 3,9 C 93 % 1012,2 hPa 0,0 l/m 0 min 2 min 0 W/m 19,3 km/h (3 Bft) 95,74 %
12.01.2023 00:52 8,2 C 7,2 C 3,9 C 93 % 1012,2 hPa 0,0 l/m 0 min 2 min 0 W/m 22,5 km/h (4 Bft) 95,74 %
12.01.2023 00:54 8,2 C 7,2 C 3,9 C 93 % 1012,3 hPa 0,0 l/m 0 min 2 min 0 W/m 29,0 km/h (5 Bft) 97,87 %
12.01.2023 00:56 8,2 C 7,2 C 3,9 C 93 % 1012,2 hPa 0,2 l/m 0 min 2 min 0 W/m 32,2 km/h (5 Bft) 95,74 %
12.01.2023 00:58 8,2 C 7,2 C 3,9 C 93 % 1012,1 hPa 0,0 l/m 0 min 2 min 0 W/m 22,5 km/h (4 Bft) 93,48 %
12.01.2023 01:00 8,2 C 7,2 C 3,9 C 93 % 1012,1 hPa 0,0 l/m 0 min 2 min 0 W/m 25,7 km/h (4 Bft) 97,87 %
12.01.2023 01:02 8,2 C 7,2 C 3,9 C 93 % 1012,1 hPa 0,0 l/m 0 min 2 min 0 W/m 38,6 km/h (5 Bft) 97,87 %
12.01.2023 01:04 8,2 C 7,2 C 3,9 C 93 % 1012,2 hPa 0,0 l/m 0 min 2 min 0 W/m 29,0 km/h (5 Bft) 97,87 %
12.01.2023 01:06 8,2 C 7,2 C 3,9 C 93 % 1012,1 hPa 0,0 l/m 0 min 2 min 0 W/m 35,4 km/h (5 Bft) 97,87 %
12.01.2023 01:08 8,2 C 7,2 C 3,9 C 93 % 1012,1 hPa 0,0 l/m 0 min 2 min 0 W/m 29,0 km/h (5 Bft) 95,74 %
12.01.2023 01:10 8,2 C 7,2 C 3,9 C 94 % 1012,1 hPa 0,0 l/m 0 min 2 min 0 W/m 25,7 km/h (4 Bft) 97,87 %
12.01.2023 01:12 8,2 C 7,2 C 3,9 C 94 % 1012,1 hPa 0,0 l/m 0 min 2 min 0 W/m 22,5 km/h (4 Bft) 95,65 %
12.01.2023 01:14 8,2 C 7,2 C 3,9 C 94 % 1012,1 hPa 0,0 l/m 0 min 2 min 0 W/m 22,5 km/h (4 Bft) 97,87 %
12.01.2023 01:16 8,2 C 7,2 C 3,9 C 94 % 1012,0 hPa 0,2 l/m 0 min 2 min 0 W/m 25,7 km/h (4 Bft) 95,74 %
12.01.2023 01:18 8,2 C 7,2 C 3,9 C 94 % 1012,1 hPa 0,0 l/m 0 min 2 min 0 W/m 32,2 km/h (5 Bft) 95,74 %
12.01.2023 01:20 8,2 C 7,2 C 3,9 C 94 % 1012,0 hPa 0,0 l/m 0 min 2 min 0 W/m 32,2 km/h (5 Bft) 95,74 %
12.01.2023 01:22 8,2 C 7,2 C 3,9 C 94 % 1012,0 hPa 0,0 l/m 0 min 2 min 0 W/m 32,2 km/h (5 Bft) 95,74 %
12.01.2023 01:24 8,2 C 7,2 C 3,9 C 94 % 1012,0 hPa 0,0 l/m 0 min 2 min 0 W/m 29,0 km/h (5 Bft) 95,74 %
12.01.2023 01:26 8,2 C 7,2 C 3,9 C 94 % 1011,9 hPa 0,0 l/m 0 min 2 min 0 W/m 29,0 km/h (5 Bft) 93,48 %
12.01.2023 01:28 8,2 C 7,2 C 3,9 C 94 % 1011,9 hPa 0,0 l/m 0 min 2 min 0 W/m 35,4 km/h (5 Bft) 91,49 %
12.01.2023 01:30 8,2 C 7,2 C 3,9 C 94 % 1011,9 hPa 0,0 l/m 0 min 2 min 0 W/m 38,6 km/h (5 Bft) 95,74 %
12.01.2023 01:32 8,2 C 7,2 C 3,9 C 94 % 1011,8 hPa 0,0 l/m 0 min 2 min 0 W/m 41,8 km/h (6 Bft) 95,74 %
12.01.2023 01:34 8,2 C 7,2 C 3,9 C 94 % 1011,9 hPa 0,0 l/m 0 min 2 min 0 W/m 32,2 km/h (5 Bft) 95,74 %
12.01.2023 01:36 8,2 C 7,2 C 3,9 C 94 % 1011,9 hPa 0,0 l/m 0 min 2 min 0 W/m 38,6 km/h (5 Bft) 95,74 %
12.01.2023 01:38 8,2 C 7,2 C 3,9 C 94 % 1011,8 hPa 0,0 l/m 0 min 2 min 0 W/m 38,6 km/h (5 Bft) 95,65 %
12.01.2023 01:40 8,2 C 7,2 C 3,9 C 94 % 1011,8 hPa 0,0 l/m 0 min 2 min 0 W/m 35,4 km/h (5 Bft) 93,62 %
12.01.2023 01:42 8,2 C 7,2 C 3,9 C 94 % 1011,9 hPa 0,0 l/m 0 min 2 min 0 W/m 35,4 km/h (5 Bft) 95,74 %
12.01.2023 01:44 8,3 C 7,2 C 3,9 C 94 % 1011,7 hPa 0,0 l/m 0 min 2 min 0 W/m 29,0 km/h (5 Bft) 95,74 %
12.01.2023 01:46 8,2 C 7,2 C 3,9 C 94 % 1011,7 hPa 0,0 l/m 0 min 2 min 0 W/m 35,4 km/h (5 Bft) 97,87 %
12.01.2023 01:48 8,2 C 7,2 C 3,9 C 94 % 1011,9 hPa 0,2 l/m 0 min 2 min 0 W/m 41,8 km/h (6 Bft) 97,87 %
12.01.2023 01:50 8,3 C 7,2 C 3,9 C 94 % 1011,7 hPa 0,0 l/m 0 min 2 min 0 W/m 32,2 km/h (5 Bft) 97,83 %
12.01.2023 01:52 8,2 C 7,2 C 3,9 C 94 % 1011,7 hPa 0,0 l/m 0 min 2 min 0 W/m 29,0 km/h (5 Bft) 95,74 %
12.01.2023 01:54 8,3 C 7,2 C 3,9 C 94 % 1011,8 hPa 0,0 l/m 0 min 2 min 0 W/m 29,0 km/h (5 Bft) 95,74 %
12.01.2023 01:56 8,3 C 7,2 C 3,9 C 94 % 1011,8 hPa 0,0 l/m 0 min 2 min 0 W/m 45,1 km/h (6 Bft) 97,87 %
12.01.2023 01:58 8,3 C 7,2 C 3,9 C 94 % 1011,7 hPa 0,0 l/m 0 min 2 min 0 W/m 61,2 km/h (7 Bft) 97,87 %
12.01.2023 02:00 8,3 C 7,2 C 3,9 C 94 % 1011,6 hPa 0,0 l/m 0 min 2 min 0 W/m 32,2 km/h (5 Bft) 95,74 %
12.01.2023 02:02 8,3 C 7,2 C 3,9 C 94 % 1011,6 hPa 0,0 l/m 0 min 2 min 0 W/m 25,7 km/h (4 Bft) 95,74 %
12.01.2023 02:04 8,3 C 7,2 C 3,9 C 94 % 1011,6 hPa 0,0 l/m 0 min 0 min 0 W/m 22,5 km/h (4 Bft) 97,83 %
12.01.2023 02:06 8,3 C 7,2 C 3,9 C 94 % 1011,5 hPa 0,0 l/m 0 min 0 min 0 W/m 25,7 km/h (4 Bft) 97,87 %
12.01.2023 02:08 8,4 C 7,2 C 3,9 C 94 % 1011,5 hPa 0,0 l/m 0 min 0 min 0 W/m 38,6 km/h (5 Bft) 100,00 %
12.01.2023 02:10 8,4 C 7,2 C 3,9 C 94 % 1011,6 hPa 0,0 l/m 0 min 0 min 0 W/m 32,2 km/h (5 Bft) 100,00 %
12.01.2023 02:14 8,4 C 7,8 C 3,9 C 94 % 1011,8 hPa 0,0 l/m 0 min 0 min 0 W/m 35,4 km/h (5 Bft) 100,00 %
12.01.2023 02:16 8,5 C 7,8 C 3,9 C 94 % 1011,6 hPa 0,0 l/m 0 min 0 min 0 W/m 22,5 km/h (4 Bft) 100,00 %
12.01.2023 02:18 8,5 C 7,8 C 3,9 C 94 % 1011,6 hPa 0,0 l/m 0 min 0 min 0 W/m 32,2 km/h (5 Bft) 97,87 %
12.01.2023 02:20 8,5 C 7,8 C 3,9 C 94 % 1011,5 hPa 0,0 l/m 0 min 0 min 0 W/m 25,7 km/h (4 Bft) 97,83 %
12.01.2023 02:22 8,5 C 7,8 C 3,9 C 94 % 1011,5 hPa 0,0 l/m 0 min 0 min 0 W/m 22,5 km/h (4 Bft) 95,74 %
12.01.2023 02:24 8,5 C 7,8 C 3,9 C 94 % 1011,5 hPa 0,0 l/m 0 min 0 min 0 W/m 32,2 km/h (5 Bft) 100,00 %
12.01.2023 02:26 8,6 C 7,8 C 3,9 C 94 % 1011,5 hPa 0,0 l/m 0 min 0 min 0 W/m 29,0 km/h (5 Bft) 100,00 %
12.01.2023 02:28 8,6 C 7,8 C 3,9 C 94 % 1011,5 hPa 0,0 l/m 0 min 0 min 0 W/m 25,7 km/h (4 Bft) 97,87 %
12.01.2023 02:30 8,6 C 7,8 C 4,4 C 94 % 1011,6 hPa 0,0 l/m 0 min 0 min 0 W/m 41,8 km/h (6 Bft) 97,87 %
12.01.2023 02:32 8,6 C 7,8 C 4,4 C 94 % 1011,5 hPa 0,0 l/m 0 min 0 min 0 W/m 35,4 km/h (5 Bft) 93,62 %
12.01.2023 02:34 8,6 C 7,8 C 4,4 C 93 % 1011,4 hPa 0,0 l/m 0 min 0 min 0 W/m 29,0 km/h (5 Bft) 97,83 %
12.01.2023 02:36 8,6 C 7,8 C 4,4 C 93 % 1011,5 hPa 0,0 l/m 0 min 0 min 0 W/m 38,6 km/h (5 Bft) 95,74 %
12.01.2023 02:38 8,7 C 7,8 C 4,4 C 93 % 1011,4 hPa 0,0 l/m 0 min 0 min 0 W/m 48,3 km/h (6 Bft) 97,87 %
12.01.2023 02:40 8,7 C 7,8 C 4,4 C 93 % 1011,5 hPa 0,0 l/m 0 min 0 min 0 W/m 29,0 km/h (5 Bft) 97,87 %
12.01.2023 02:42 8,7 C 7,8 C 4,4 C 93 % 1011,4 hPa 0,0 l/m 0 min 0 min 0 W/m 29,0 km/h (5 Bft) 95,74 %
12.01.2023 02:44 8,7 C 7,8 C 4,4 C 93 % 1011,5 hPa 0,0 l/m 0 min 0 min 0 W/m 16,1 km/h (3 Bft) 97,87 %
12.01.2023 02:46 8,7 C 7,8 C 4,4 C 93 % 1011,5 hPa 0,0 l/m 0 min 0 min 0 W/m 25,7 km/h (4 Bft) 95,65 %
12.01.2023 02:48 8,6 C 7,8 C 4,4 C 93 % 1011,5 hPa 0,0 l/m 0 min 0 min 0 W/m 29,0 km/h (5 Bft) 95,74 %
12.01.2023 02:50 8,7 C 7,8 C 4,4 C 93 % 1011,5 hPa 0,0 l/m 0 min 0 min 0 W/m 51,5 km/h (7 Bft) 100,00 %
12.01.2023 02:52 8,7 C 7,8 C 4,4 C 93 % 1011,3 hPa 0,0 l/m 0 min 0 min 0 W/m 29,0 km/h (5 Bft) 100,00 %
12.01.2023 02:54 8,7 C 7,8 C 4,4 C 93 % 1011,2 hPa 0,0 l/m 0 min 0 min 0 W/m 29,0 km/h (5 Bft) 100,00 %
12.01.2023 02:56 8,7 C 7,8 C 4,4 C 93 % 1011,4 hPa 0,0 l/m 0 min 0 min 0 W/m 25,7 km/h (4 Bft) 97,87 %
12.01.2023 02:58 8,7 C 7,8 C 4,4 C 93 % 1011,2 hPa 0,0 l/m 0 min 0 min 0 W/m 25,7 km/h (4 Bft) 100,00 %
12.01.2023 03:00 8,7 C 7,8 C 4,4 C 93 % 1011,2 hPa 0,0 l/m 0 min 0 min 0 W/m 25,7 km/h (4 Bft) 100,00 %
12.01.2023 03:02 8,7 C 7,8 C 4,4 C 93 % 1011,1 hPa 0,0 l/m 0 min 0 min 0 W/m 48,3 km/h (6 Bft) 97,87 %
12.01.2023 03:04 8,7 C 7,8 C 4,4 C 93 % 1011,1 hPa 0,0 l/m 0 min 0 min 0 W/m 45,1 km/h (6 Bft) 97,87 %
12.01.2023 03:06 8,7 C 7,8 C 4,4 C 92 % 1011,2 hPa 0,0 l/m 0 min 0 min 0 W/m 32,2 km/h (5 Bft) 100,00 %
12.01.2023 03:08 8,8 C 7,8 C 4,4 C 92 % 1011,1 hPa 0,0 l/m 0 min 0 min 0 W/m 32,2 km/h (5 Bft) 100,00 %
12.01.2023 03:10 8,8 C 8,3 C 4,4 C 92 % 1011,0 hPa 0,0 l/m 0 min 0 min 0 W/m 38,6 km/h (5 Bft) 100,00 %
12.01.2023 03:12 8,8 C 8,3 C 4,4 C 92 % 1011,0 hPa 0,0 l/m 0 min 0 min 0 W/m 38,6 km/h (5 Bft) 97,87 %
12.01.2023 03:14 8,8 C 8,3 C 4,4 C 92 % 1011,0 hPa 0,0 l/m 0 min 0 min 0 W/m 38,6 km/h (5 Bft) 100,00 %
12.01.2023 03:16 8,8 C 8,3 C 4,4 C 92 % 1011,0 hPa 0,0 l/m 0 min 0 min 0 W/m 32,2 km/h (5 Bft) 97,87 %
12.01.2023 03:18 8,8 C 8,3 C 4,4 C 92 % 1011,0 hPa 0,0 l/m 0 min 2 min 0 W/m 41,8 km/h (6 Bft) 100,00 %
12.01.2023 03:20 8,8 C 8,3 C 4,4 C 92 % 1011,0 hPa 0,0 l/m 0 min 2 min 0 W/m 29,0 km/h (5 Bft) 100,00 %
12.01.2023 03:22 8,8 C 8,3 C 4,4 C 92 % 1011,0 hPa 0,0 l/m 0 min 2 min 0 W/m 32,2 km/h (5 Bft) 100,00 %
12.01.2023 03:24 8,9 C 7,8 C 4,4 C 92 % 1010,9 hPa 0,0 l/m 0 min 2 min 0 W/m 41,8 km/h (6 Bft) 100,00 %
12.01.2023 03:26 8,9 C 7,8 C 4,4 C 91 % 1011,0 hPa 0,0 l/m 0 min 2 min 0 W/m 32,2 km/h (5 Bft) 97,83 %
12.01.2023 03:28 8,9 C 7,8 C 4,4 C 91 % 1010,9 hPa 0,0 l/m 0 min 2 min 0 W/m 35,4 km/h (5 Bft) 100,00 %
12.01.2023 03:30 8,9 C 7,8 C 4,4 C 91 % 1011,0 hPa 0,0 l/m 0 min 2 min 0 W/m 45,1 km/h (6 Bft) 97,87 %
12.01.2023 03:32 8,9 C 7,8 C 4,4 C 91 % 1010,9 hPa 0,0 l/m 0 min 2 min 0 W/m 35,4 km/h (5 Bft) 97,87 %
12.01.2023 03:34 8,9 C 7,8 C 4,4 C 91 % 1010,8 hPa 0,0 l/m 0 min 2 min 0 W/m 29,0 km/h (5 Bft) 95,74 %
12.01.2023 03:36 8,9 C 7,8 C 4,4 C 91 % 1010,8 hPa 0,0 l/m 0 min 2 min 0 W/m 35,4 km/h (5 Bft) 97,87 %
12.01.2023 03:38 8,9 C 7,8 C 4,4 C 91 % 1010,7 hPa 0,0 l/m 0 min 2 min 0 W/m 29,0 km/h (5 Bft) 97,87 %
12.01.2023 03:40 8,9 C 7,8 C 4,4 C 91 % 1010,7 hPa 0,2 l/m 0 min 2 min 0 W/m 48,3 km/h (6 Bft) 97,83 %
12.01.2023 03:42 8,9 C 7,8 C 4,4 C 91 % 1010,7 hPa 0,0 l/m 0 min 2 min 0 W/m 35,4 km/h (5 Bft) 97,87 %
12.01.2023 03:44 8,9 C 7,8 C 4,4 C 91 % 1010,6 hPa 0,0 l/m 0 min 2 min 0 W/m 29,0 km/h (5 Bft) 97,87 %
12.01.2023 03:46 8,9 C 7,2 C 4,4 C 91 % 1010,7 hPa 0,0 l/m 0 min 2 min 0 W/m 35,4 km/h (5 Bft) 95,74 %
12.01.2023 03:48 8,9 C 7,2 C 4,4 C 91 % 1010,8 hPa 0,0 l/m 0 min 2 min 0 W/m 35,4 km/h (5 Bft) 97,87 %
12.01.2023 03:50 8,9 C 7,2 C 4,4 C 91 % 1010,6 hPa 0,0 l/m 0 min 2 min 0 W/m 32,2 km/h (5 Bft) 95,74 %
12.01.2023 03:52 8,9 C 7,2 C 4,4 C 92 % 1010,5 hPa 0,0 l/m 0 min 2 min 0 W/m 32,2 km/h (5 Bft) 97,83 %
12.01.2023 03:54 8,9 C 7,2 C 4,4 C 92 % 1010,5 hPa 0,0 l/m 0 min 2 min 0 W/m 35,4 km/h (5 Bft) 97,87 %
12.01.2023 03:56 8,8 C 7,2 C 4,4 C 92 % 1010,5 hPa 0,0 l/m 0 min 2 min 0 W/m 35,4 km/h (5 Bft) 97,87 %
12.01.2023 03:58 8,9 C 7,2 C 4,4 C 92 % 1010,4 hPa 0,0 l/m 0 min 2 min 0 W/m 29,0 km/h (5 Bft) 97,87 %
12.01.2023 04:00 8,8 C 7,2 C 4,4 C 92 % 1010,5 hPa 0,0 l/m 0 min 2 min 0 W/m 29,0 km/h (5 Bft) 97,87 %
12.01.2023 04:02 8,8 C 7,2 C 4,4 C 92 % 1010,6 hPa 0,0 l/m 0 min 2 min 0 W/m 29,0 km/h (5 Bft) 95,74 %
12.01.2023 04:04 8,8 C 7,2 C 4,4 C 92 % 1010,3 hPa 0,0 l/m 0 min 2 min 0 W/m 38,6 km/h (5 Bft) 95,74 %
12.01.2023 04:06 8,8 C 7,2 C 4,4 C 92 % 1010,3 hPa 0,0 l/m 0 min 2 min 0 W/m 45,1 km/h (6 Bft) 96,61 %
12.01.2023 04:08 8,8 C 7,8 C 4,4 C 92 % 1010,3 hPa 0,2 l/m 0 min 2 min 0 W/m 41,8 km/h (6 Bft) 97,14 %
12.01.2023 04:10 8,9 C 7,8 C 4,4 C 92 % 1010,1 hPa 0,0 l/m 0 min 2 min 0 W/m 41,8 km/h (6 Bft) 97,87 %
12.01.2023 04:12 8,9 C 7,8 C 4,4 C 92 % 1010,3 hPa 0,0 l/m 0 min 2 min 0 W/m 48,3 km/h (6 Bft) 95,74 %
12.01.2023 04:14 8,9 C 7,8 C 4,4 C 92 % 1010,3 hPa 0,0 l/m 0 min 2 min 0 W/m 38,6 km/h (5 Bft) 97,87 %
12.01.2023 04:16 8,9 C 7,8 C 4,4 C 92 % 1010,3 hPa 0,0 l/m 0 min 2 min 0 W/m 35,4 km/h (5 Bft) 97,83 %
12.01.2023 04:18 8,9 C 7,2 C 4,4 C 92 % 1010,3 hPa 0,0 l/m 0 min 2 min 0 W/m 41,8 km/h (6 Bft) 95,74 %
12.01.2023 04:20 8,9 C 7,2 C 4,4 C 92 % 1010,2 hPa 0,0 l/m 0 min 2 min 0 W/m 41,8 km/h (6 Bft) 97,87 %
12.01.2023 04:22 8,9 C 7,2 C 4,4 C 92 % 1010,3 hPa 0,0 l/m 0 min 2 min 0 W/m 35,4 km/h (5 Bft) 97,87 %
12.01.2023 04:24 8,9 C 7,2 C 4,4 C 92 % 1010,1 hPa 0,0 l/m 0 min 2 min 0 W/m 29,0 km/h (5 Bft) 95,74 %
12.01.2023 04:26 8,8 C 7,2 C 4,4 C 92 % 1010,0 hPa 0,2 l/m 0 min 2 min 0 W/m 35,4 km/h (5 Bft) 95,74 %
12.01.2023 04:28 8,8 C 7,2 C 4,4 C 92 % 1010,1 hPa 0,0 l/m 0 min 2 min 0 W/m 38,6 km/h (5 Bft) 95,74 %
12.01.2023 04:30 8,8 C 7,2 C 4,4 C 92 % 1010,2 hPa 0,0 l/m 0 min 2 min 0 W/m 19,3 km/h (3 Bft) 93,48 %
12.01.2023 04:32 8,8 C 7,2 C 4,4 C 92 % 1010,0 hPa 0,0 l/m 0 min 2 min 0 W/m 41,8 km/h (6 Bft) 95,74 %
12.01.2023 04:34 8,8 C 7,2 C 4,4 C 92 % 1010,0 hPa 0,0 l/m 0 min 2 min 0 W/m 48,3 km/h (6 Bft) 95,74 %
12.01.2023 04:36 8,8 C 7,2 C 4,4 C 92 % 1009,9 hPa 0,0 l/m 0 min 2 min 0 W/m 29,0 km/h (5 Bft) 93,62 %
12.01.2023 04:38 8,8 C 7,2 C 4,4 C 92 % 1010,1 hPa 0,0 l/m 0 min 2 min 0 W/m 32,2 km/h (5 Bft) 95,74 %
12.01.2023 04:40 8,8 C 7,2 C 4,4 C 92 % 1010,0 hPa 0,0 l/m 0 min 2 min 0 W/m 51,5 km/h (7 Bft) 97,87 %
12.01.2023 04:42 8,8 C 7,2 C 4,4 C 92 % 1009,9 hPa 0,0 l/m 0 min 2 min 0 W/m 32,2 km/h (5 Bft) 97,83 %
12.01.2023 04:44 8,8 C 7,2 C 4,4 C 93 % 1010,2 hPa 0,0 l/m 0 min 2 min 0 W/m 29,0 km/h (5 Bft) 97,87 %
12.01.2023 04:46 8,8 C 7,2 C 4,4 C 93 % 1009,8 hPa 0,0 l/m 0 min 2 min 0 W/m 29,0 km/h (5 Bft) 97,87 %
12.01.2023 04:48 8,8 C 7,2 C 4,4 C 93 % 1009,8 hPa 0,0 l/m 0 min 2 min 0 W/m 32,2 km/h (5 Bft) 97,87 %
12.01.2023 04:50 8,8 C 7,2 C 4,4 C 93 % 1009,8 hPa 0,0 l/m 0 min 2 min 0 W/m 41,8 km/h (6 Bft) 97,87 %
12.01.2023 04:52 8,8 C 7,2 C 4,4 C 93 % 1009,7 hPa 0,0 l/m 0 min 2 min 0 W/m 29,0 km/h (5 Bft) 97,87 %
12.01.2023 04:54 8,8 C 7,2 C 4,4 C 93 % 1009,7 hPa 0,0 l/m 0 min 2 min 0 W/m 29,0 km/h (5 Bft) 70,21 %
12.01.2023 04:56 8,8 C 7,2 C 4,4 C 93 % 1009,9 hPa 0,0 l/m 0 min 2 min 0 W/m 41,8 km/h (6 Bft) 78,57 %
12.01.2023 04:58 8,7 C 7,2 C 4,4 C 93 % 1009,8 hPa 0,0 l/m 0 min 2 min 0 W/m 41,8 km/h (6 Bft) 95,74 %
12.01.2023 05:00 8,8 C 7,2 C 4,4 C 93 % 1009,7 hPa 0,0 l/m 0 min 2 min 0 W/m 38,6 km/h (5 Bft) 97,87 %
12.01.2023 05:02 8,7 C 7,2 C 4,4 C 93 % 1009,6 hPa 0,0 l/m 0 min 2 min 0 W/m 35,4 km/h (5 Bft) 97,87 %
12.01.2023 05:04 8,8 C 7,2 C 4,4 C 93 % 1009,7 hPa 0,2 l/m 0 min 2 min 0 W/m 38,6 km/h (5 Bft) 97,87 %
12.01.2023 05:06 8,8 C 7,2 C 4,4 C 93 % 1009,7 hPa 0,0 l/m 0 min 2 min 0 W/m 29,0 km/h (5 Bft) 98,28 %
12.01.2023 05:08 8,8 C 7,2 C 4,4 C 93 % 1009,7 hPa 0,0 l/m 0 min 2 min 0 W/m 41,8 km/h (6 Bft) 97,14 %
12.01.2023 05:10 8,8 C 7,2 C 4,4 C 93 % 1009,5 hPa 0,0 l/m 0 min 2 min 0 W/m 51,5 km/h (7 Bft) 97,87 %
12.01.2023 05:12 8,8 C 7,2 C 4,4 C 93 % 1009,4 hPa 0,0 l/m 0 min 2 min 0 W/m 38,6 km/h (5 Bft) 95,74 %
12.01.2023 05:14 8,8 C 7,2 C 4,4 C 93 % 1009,5 hPa 0,0 l/m 0 min 2 min 0 W/m 54,7 km/h (7 Bft) 100,00 %
12.01.2023 05:16 8,8 C 7,2 C 4,4 C 93 % 1009,4 hPa 0,0 l/m 0 min 2 min 0 W/m 41,8 km/h (6 Bft) 100,00 %
12.01.2023 05:18 8,8 C 7,2 C 4,4 C 93 % 1009,5 hPa 0,0 l/m 0 min 2 min 0 W/m 54,7 km/h (7 Bft) 100,00 %
12.01.2023 05:20 8,8 C 7,2 C 4,4 C 93 % 1009,4 hPa 0,0 l/m 0 min 2 min 0 W/m 41,8 km/h (6 Bft) 100,00 %
12.01.2023 05:22 8,8 C 7,2 C 4,4 C 93 % 1009,4 hPa 0,2 l/m 0 min 2 min 0 W/m 45,1 km/h (6 Bft) 97,87 %
12.01.2023 05:24 8,8 C 7,2 C 4,4 C 93 % 1009,5 hPa 0,0 l/m 0 min 2 min 0 W/m 35,4 km/h (5 Bft) 100,00 %
12.01.2023 05:26 8,8 C 7,2 C 4,4 C 93 % 1009,4 hPa 0,0 l/m 0 min 2 min 0 W/m 32,2 km/h (5 Bft) 100,00 %
12.01.2023 05:28 8,8 C 7,2 C 4,4 C 93 % 1009,2 hPa 0,0 l/m 0 min 2 min 0 W/m 32,2 km/h (5 Bft) 100,00 %
12.01.2023 05:30 8,8 C 7,2 C 4,4 C 93 % 1009,1 hPa 0,0 l/m 0 min 2 min 0 W/m 70,8 km/h (8 Bft) 97,87 %
12.01.2023 05:32 8,8 C 7,2 C 4,4 C 93 % 1009,3 hPa 0,0 l/m 0 min 2 min 0 W/m 38,6 km/h (5 Bft) 100,00 %
12.01.2023 05:34 8,8 C 7,2 C 4,4 C 93 % 1009,1 hPa 0,2 l/m 0 min 2 min 0 W/m 35,4 km/h (5 Bft) 100,00 %
12.01.2023 05:36 8,8 C 7,2 C 4,4 C 93 % 1009,1 hPa 0,0 l/m 0 min 2 min 0 W/m 38,6 km/h (5 Bft) 100,00 %
12.01.2023 05:38 8,8 C 7,2 C 4,4 C 93 % 1009,0 hPa 0,2 l/m 0 min 2 min 0 W/m 51,5 km/h (7 Bft) 100,00 %
12.01.2023 05:40 8,7 C 7,2 C 4,4 C 93 % 1009,2 hPa 0,0 l/m 0 min 2 min 0 W/m 38,6 km/h (5 Bft) 100,00 %
12.01.2023 05:42 8,7 C 7,2 C 4,4 C 94 % 1009,0 hPa 0,0 l/m 0 min 2 min 0 W/m 32,2 km/h (5 Bft) 97,87 %
12.01.2023 05:44 8,7 C 7,2 C 4,4 C 94 % 1008,9 hPa 0,2 l/m 0 min 2 min 0 W/m 29,0 km/h (5 Bft) 100,00 %
12.01.2023 05:46 8,7 C 7,2 C 4,4 C 94 % 1009,0 hPa 0,0 l/m 0 min 2 min 0 W/m 25,7 km/h (4 Bft) 97,83 %
12.01.2023 05:48 8,7 C 7,2 C 4,4 C 94 % 1008,8 hPa 0,2 l/m 0 min 2 min 0 W/m 32,2 km/h (5 Bft) 100,00 %
12.01.2023 05:50 8,7 C 7,2 C 4,4 C 94 % 1008,7 hPa 0,0 l/m 0 min 2 min 0 W/m 35,4 km/h (5 Bft) 100,00 %
12.01.2023 05:52 8,6 C 7,2 C 4,4 C 94 % 1008,9 hPa 0,0 l/m 0 min 2 min 0 W/m 25,7 km/h (4 Bft) 97,87 %
12.01.2023 05:54 8,6 C 7,2 C 4,4 C 94 % 1008,7 hPa 0,2 l/m 0 min 2 min 0 W/m 25,7 km/h (4 Bft) 100,00 %
12.01.2023 05:56 8,6 C 7,2 C 4,4 C 94 % 1008,7 hPa 0,0 l/m 0 min 2 min 0 W/m 48,3 km/h (6 Bft) 100,00 %
12.01.2023 05:58 8,6 C 7,2 C 4,4 C 94 % 1008,7 hPa 0,2 l/m 0 min 2 min 0 W/m 51,5 km/h (7 Bft) 100,00 %
12.01.2023 06:00 8,6 C 7,2 C 4,4 C 94 % 1008,7 hPa 0,0 l/m 0 min 2 min 0 W/m 48,3 km/h (6 Bft) 95,74 %
12.01.2023 06:02 8,6 C 7,2 C 4,4 C 94 % 1008,6 hPa 0,0 l/m 0 min 2 min 0 W/m 32,2 km/h (5 Bft) 93,62 %
12.01.2023 06:04 8,6 C 7,2 C 4,4 C 94 % 1008,7 hPa 0,2 l/m 0 min 2 min 0 W/m 35,4 km/h (5 Bft) 95,74 %
12.01.2023 06:07 8,6 C 7,2 C 4,4 C 94 % 1008,6 hPa 0,0 l/m 0 min 3 min 0 W/m 41,8 km/h (6 Bft) 95,71 %
12.01.2023 06:08 8,6 C 7,2 C 4,4 C 94 % 1008,6 hPa 0,2 l/m 0 min 1 min 0 W/m 35,4 km/h (5 Bft) 100,00 %
12.01.2023 06:10 8,6 C 7,2 C 4,4 C 94 % 1008,5 hPa 0,0 l/m 0 min 2 min 0 W/m 45,1 km/h (6 Bft) 95,65 %
12.01.2023 06:12 8,6 C 7,2 C 4,4 C 94 % 1008,5 hPa 0,0 l/m 0 min 2 min 0 W/m 54,7 km/h (7 Bft) 95,74 %
12.01.2023 06:14 8,6 C 7,2 C 4,4 C 94 % 1008,3 hPa 0,2 l/m 0 min 2 min 0 W/m 32,2 km/h (5 Bft) 95,74 %
12.01.2023 06:16 8,6 C 7,2 C 4,4 C 94 % 1008,5 hPa 0,0 l/m 0 min 2 min 0 W/m 29,0 km/h (5 Bft) 95,74 %
12.01.2023 06:18 8,6 C 7,2 C 4,4 C 94 % 1008,4 hPa 0,2 l/m 0 min 2 min 0 W/m 57,9 km/h (7 Bft) 93,62 %
12.01.2023 06:20 8,6 C 7,2 C 4,4 C 95 % 1008,4 hPa 0,2 l/m 0 min 2 min 0 W/m 45,1 km/h (6 Bft) 95,74 %
12.01.2023 06:22 8,6 C 7,2 C 4,4 C 95 % 1008,1 hPa 0,0 l/m 0 min 2 min 0 W/m 29,0 km/h (5 Bft) 95,74 %
12.01.2023 06:24 8,6 C 7,2 C 4,4 C 95 % 1008,1 hPa 0,2 l/m 0 min 2 min 0 W/m 41,8 km/h (6 Bft) 95,65 %
12.01.2023 06:26 8,6 C 7,2 C 4,4 C 94 % 1008,1 hPa 0,0 l/m 0 min 2 min 0 W/m 29,0 km/h (5 Bft) 91,49 %
12.01.2023 06:28 8,6 C 7,2 C 4,4 C 94 % 1008,0 hPa 0,2 l/m 0 min 2 min 0 W/m 64,4 km/h (8 Bft) 95,74 %
12.01.2023 06:30 8,6 C 7,2 C 4,4 C 94 % 1008,1 hPa 0,0 l/m 0 min 2 min 0 W/m 35,4 km/h (5 Bft) 95,74 %
12.01.2023 06:32 8,6 C 7,2 C 4,4 C 94 % 1008,0 hPa 0,0 l/m 0 min 2 min 0 W/m 41,8 km/h (6 Bft) 97,87 %
12.01.2023 06:34 8,6 C 7,2 C 4,4 C 94 % 1007,8 hPa 0,2 l/m 0 min 2 min 0 W/m 45,1 km/h (6 Bft) 97,87 %
12.01.2023 06:36 8,6 C 7,2 C 4,4 C 94 % 1008,0 hPa 0,0 l/m 0 min 2 min 0 W/m 48,3 km/h (6 Bft) 97,83 %
12.01.2023 06:38 8,6 C 7,2 C 4,4 C 94 % 1008,0 hPa 0,0 l/m 0 min 2 min 0 W/m 32,2 km/h (5 Bft) 97,87 %
12.01.2023 06:40 8,5 C 7,2 C 4,4 C 94 % 1007,6 hPa 0,2 l/m 0 min 2 min 0 W/m 35,4 km/h (5 Bft) 97,87 %
12.01.2023 06:42 8,5 C 7,2 C 4,4 C 94 % 1007,6 hPa 0,0 l/m 0 min 2 min 0 W/m 48,3 km/h (6 Bft) 95,74 %
12.01.2023 06:44 8,5 C 7,2 C 4,4 C 94 % 1007,6 hPa 0,0 l/m 0 min 2 min 0 W/m 38,6 km/h (5 Bft) 97,87 %
12.01.2023 06:46 8,5 C 7,2 C 4,4 C 94 % 1007,4 hPa 0,2 l/m 0 min 2 min 0 W/m 45,1 km/h (6 Bft) 97,87 %
12.01.2023 06:48 8,5 C 7,2 C 4,4 C 94 % 1007,5 hPa 0,0 l/m 0 min 2 min 0 W/m 48,3 km/h (6 Bft) 97,87 %
12.01.2023 06:50 8,5 C 7,2 C 4,4 C 94 % 1007,5 hPa 0,2 l/m 0 min 2 min 0 W/m 48,3 km/h (6 Bft) 100,00 %
12.01.2023 06:52 8,5 C 7,2 C 4,4 C 94 % 1007,6 hPa 0,0 l/m 0 min 2 min 0 W/m 54,7 km/h (7 Bft) 100,00 %
12.01.2023 06:54 8,5 C 7,2 C 4,4 C 94 % 1007,9 hPa 0,0 l/m 0 min 2 min 0 W/m 29,0 km/h (5 Bft) 100,00 %
12.01.2023 06:56 8,5 C 7,2 C 4,4 C 94 % 1007,6 hPa 0,2 l/m 0 min 2 min 0 W/m 35,4 km/h (5 Bft) 100,00 %
12.01.2023 06:58 8,5 C 7,2 C 4,4 C 94 % 1007,7 hPa 0,0 l/m 0 min 2 min 0 W/m 35,4 km/h (5 Bft) 100,00 %
12.01.2023 07:00 8,5 C 7,2 C 4,4 C 94 % 1007,4 hPa 0,0 l/m 0 min 2 min 0 W/m 32,2 km/h (5 Bft) 100,00 %
12.01.2023 07:02 8,5 C 7,2 C 4,4 C 94 % 1007,3 hPa 0,0 l/m 0 min 2 min 0 W/m 48,3 km/h (6 Bft) 100,00 %
12.01.2023 07:04 8,5 C 7,2 C 4,4 C 94 % 1007,3 hPa 0,2 l/m 0 min 2 min 0 W/m 35,4 km/h (5 Bft) 100,00 %
12.01.2023 07:06 8,5 C 7,2 C 4,4 C 94 % 1007,2 hPa 0,0 l/m 0 min 2 min 0 W/m 54,7 km/h (7 Bft) 100,00 %
12.01.2023 07:08 8,5 C 7,2 C 4,4 C 94 % 1007,5 hPa 0,0 l/m 0 min 2 min 0 W/m 41,8 km/h (6 Bft) 100,00 %
12.01.2023 07:10 8,4 C 7,2 C 4,4 C 94 % 1007,0 hPa 0,2 l/m 0 min 2 min 0 W/m 35,4 km/h (5 Bft) 100,00 %
12.01.2023 07:12 8,5 C 7,2 C 4,4 C 94 % 1007,5 hPa 0,0 l/m 0 min 2 min 0 W/m 51,5 km/h (7 Bft) 97,87 %
12.01.2023 07:14 8,5 C 7,2 C 4,4 C 94 % 1007,6 hPa 0,0 l/m 0 min 2 min 0 W/m 41,8 km/h (6 Bft) 100,00 %
12.01.2023 07:16 8,6 C 7,2 C 4,4 C 94 % 1007,5 hPa 0,0 l/m 0 min 2 min 0 W/m 45,1 km/h (6 Bft) 100,00 %
12.01.2023 07:18 8,6 C 7,2 C 4,4 C 94 % 1007,4 hPa 0,2 l/m 0 min 2 min 0 W/m 48,3 km/h (6 Bft) 100,00 %
12.01.2023 07:20 8,6 C 7,2 C 4,4 C 94 % 1007,3 hPa 0,0 l/m 0 min 2 min 0 W/m 41,8 km/h (6 Bft) 97,87 %
12.01.2023 07:22 8,6 C 7,2 C 4,4 C 94 % 1007,2 hPa 0,0 l/m 0 min 2 min 0 W/m 41,8 km/h (6 Bft) 100,00 %
12.01.2023 07:24 8,6 C 7,2 C 4,4 C 94 % 1007,3 hPa 0,0 l/m 0 min 2 min 0 W/m 41,8 km/h (6 Bft) 97,87 %
12.01.2023 07:26 8,6 C 7,2 C 4,4 C 94 % 1007,1 hPa 0,2 l/m 0 min 2 min 0 W/m 41,8 km/h (6 Bft) 97,87 %
12.01.2023 07:28 8,6 C 7,2 C 4,4 C 94 % 1007,0 hPa 0,0 l/m 0 min 2 min 0 W/m 38,6 km/h (5 Bft) 97,87 %
12.01.2023 07:30 8,6 C 7,2 C 4,4 C 95 % 1007,3 hPa 0,0 l/m 0 min 2 min 0 W/m 29,0 km/h (5 Bft) 95,65 %
12.01.2023 07:32 8,6 C 7,2 C 4,4 C 95 % 1007,2 hPa 0,0 l/m 0 min 2 min 0 W/m 35,4 km/h (5 Bft) 95,74 %
12.01.2023 07:34 8,6 C 7,2 C 4,4 C 95 % 1007,1 hPa 0,0 l/m 0 min 2 min 0 W/m 35,4 km/h (5 Bft) 97,87 %
12.01.2023 07:36 8,6 C 7,2 C 4,4 C 95 % 1007,2 hPa 0,0 l/m 0 min 2 min 0 W/m 57,9 km/h (7 Bft) 97,87 %
12.01.2023 07:38 8,6 C 7,2 C 4,4 C 95 % 1007,1 hPa 0,2 l/m 0 min 2 min 0 W/m 41,8 km/h (6 Bft) 97,87 %
12.01.2023 07:40 8,6 C 7,2 C 4,4 C 95 % 1007,1 hPa 0,0 l/m 0 min 2 min 0 W/m 38,6 km/h (5 Bft) 95,74 %
12.01.2023 07:42 8,7 C 7,2 C 4,4 C 95 % 1007,0 hPa 0,0 l/m 0 min 2 min 0 W/m 48,3 km/h (6 Bft) 95,74 %
12.01.2023 07:44 8,7 C 7,2 C 4,4 C 95 % 1007,1 hPa 0,0 l/m 0 min 2 min 0 W/m 38,6 km/h (5 Bft) 97,83 %
12.01.2023 07:46 8,7 C 7,2 C 5,0 C 95 % 1007,0 hPa 0,2 l/m 0 min 2 min 0 W/m 32,2 km/h (5 Bft) 97,87 %
12.01.2023 07:48 8,7 C 7,2 C 5,0 C 95 % 1007,0 hPa 0,0 l/m 0 min 2 min 0 W/m 38,6 km/h (5 Bft) 95,74 %
12.01.2023 07:50 8,7 C 7,2 C 5,0 C 95 % 1007,0 hPa 0,0 l/m 0 min 2 min 0 W/m 38,6 km/h (5 Bft) 97,87 %
12.01.2023 07:52 8,7 C 7,2 C 5,0 C 95 % 1006,9 hPa 0,0 l/m 0 min 2 min 0 W/m 38,6 km/h (5 Bft) 97,87 %
12.01.2023 07:54 8,7 C 7,2 C 5,0 C 95 % 1007,0 hPa 0,0 l/m 0 min 2 min 0 W/m 48,3 km/h (6 Bft) 95,74 %
12.01.2023 07:56 8,8 C 7,2 C 5,0 C 95 % 1007,0 hPa 0,0 l/m 0 min 2 min 0 W/m 45,1 km/h (6 Bft) 95,74 %
12.01.2023 07:58 8,8 C 7,2 C 5,0 C 95 % 1006,9 hPa 0,2 l/m 0 min 2 min 0 W/m 29,0 km/h (5 Bft) 93,48 %
12.01.2023 08:00 8,8 C 7,2 C 5,0 C 95 % 1007,0 hPa 0,0 l/m 0 min 2 min 0 W/m 35,4 km/h (5 Bft) 95,74 %
12.01.2023 08:02 8,8 C 7,2 C 5,0 C 95 % 1007,0 hPa 0,0 l/m 0 min 2 min 0 W/m 35,4 km/h (5 Bft) 95,74 %
12.01.2023 08:04 8,8 C 7,2 C 5,0 C 95 % 1007,1 hPa 0,0 l/m 0 min 2 min 0 W/m 48,3 km/h (6 Bft) 93,62 %
12.01.2023 08:06 8,8 C 7,2 C 5,0 C 95 % 1006,9 hPa 0,2 l/m 0 min 2 min 0 W/m 41,8 km/h (6 Bft) 93,62 %
12.01.2023 08:08 8,8 C 7,2 C 5,0 C 95 % 1007,0 hPa 0,0 l/m 0 min 2 min 0 W/m 48,3 km/h (6 Bft) 95,74 %
12.01.2023 08:10 8,8 C 7,2 C 5,0 C 95 % 1007,0 hPa 0,0 l/m 0 min 2 min 0 W/m 22,5 km/h (4 Bft) 95,65 %
12.01.2023 08:12 8,8 C 7,2 C 5,0 C 95 % 1007,2 hPa 0,0 l/m 0 min 2 min 0 W/m 32,2 km/h (5 Bft) 95,74 %
12.01.2023 08:14 8,8 C 7,2 C 5,0 C 95 % 1007,2 hPa 0,0 l/m 0 min 2 min 0 W/m 38,6 km/h (5 Bft) 97,87 %
12.01.2023 08:16 8,8 C 7,2 C 5,0 C 95 % 1007,0 hPa 0,2 l/m 0 min 2 min 0 W/m 22,5 km/h (4 Bft) 97,87 %
12.01.2023 08:18 8,8 C 7,2 C 5,0 C 95 % 1007,0 hPa 0,0 l/m 0 min 2 min 0 W/m 29,0 km/h (5 Bft) 97,87 %
12.01.2023 08:20 8,9 C 7,2 C 5,0 C 95 % 1007,0 hPa 0,0 l/m 0 min 2 min 0 W/m 74,0 km/h (8 Bft) 97,87 %
12.01.2023 08:22 8,9 C 7,2 C 5,0 C 95 % 1007,0 hPa 0,2 l/m 0 min 2 min 0 W/m 25,7 km/h (4 Bft) 93,48 %
12.01.2023 08:24 8,9 C 7,8 C 5,0 C 95 % 1007,0 hPa 0,0 l/m 0 min 2 min 0 W/m 45,1 km/h (6 Bft) 97,87 %
12.01.2023 08:26 8,9 C 7,8 C 5,0 C 95 % 1006,9 hPa 0,0 l/m 0 min 2 min 0 W/m 29,0 km/h (5 Bft) 97,87 %
12.01.2023 08:28 8,9 C 7,8 C 5,0 C 95 % 1007,1 hPa 0,0 l/m 0 min 2 min 0 W/m 25,7 km/h (4 Bft) 100,00 %
12.01.2023 08:30 8,9 C 7,8 C 5,0 C 95 % 1007,0 hPa 0,0 l/m 0 min 0 min 0 W/m 25,7 km/h (4 Bft) 93,62 %
12.01.2023 08:32 8,9 C 7,8 C 5,0 C 95 % 1007,0 hPa 0,0 l/m 0 min 2 min 0 W/m 29,0 km/h (5 Bft) 95,74 %
12.01.2023 08:34 9,0 C 7,8 C 5,0 C 95 % 1007,0 hPa 0,0 l/m 0 min 2 min 0 W/m 35,4 km/h (5 Bft) 97,87 %
12.01.2023 08:36 9,0 C 7,8 C 5,0 C 95 % 1006,9 hPa 0,2 l/m 0 min 2 min 0 W/m 61,2 km/h (7 Bft) 95,65 %
12.01.2023 08:38 9,0 C 7,8 C 5,0 C 95 % 1006,9 hPa 0,0 l/m 0 min 2 min 0 W/m 57,9 km/h (7 Bft) 97,87 %
12.01.2023 08:40 9,1 C 7,8 C 5,0 C 95 % 1006,8 hPa 0,0 l/m 0 min 2 min 0 W/m 57,9 km/h (7 Bft) 97,87 %
12.01.2023 08:42 9,1 C 7,8 C 5,0 C 95 % 1007,0 hPa 0,2 l/m 0 min 2 min 0 W/m 41,8 km/h (6 Bft) 95,74 %
12.01.2023 08:44 9,1 C 7,8 C 5,0 C 95 % 1006,9 hPa 0,0 l/m 0 min 2 min 0 W/m 32,2 km/h (5 Bft) 97,87 %
12.01.2023 08:46 9,1 C 7,8 C 5,0 C 95 % 1007,0 hPa 0,0 l/m 0 min 2 min 0 W/m 41,8 km/h (6 Bft) 95,74 %
12.01.2023 08:48 9,1 C 7,8 C 5,0 C 95 % 1006,9 hPa 0,0 l/m 0 min 2 min 0 W/m 54,7 km/h (7 Bft) 95,65 %
12.01.2023 08:50 9,2 C 7,8 C 5,0 C 95 % 1006,9 hPa 0,0 l/m 0 min 2 min 0 W/m 38,6 km/h (5 Bft) 97,87 %
12.01.2023 08:52 9,2 C 7,8 C 5,0 C 95 % 1007,0 hPa 0,0 l/m 0 min 2 min 0 W/m 32,2 km/h (5 Bft) 95,74 %
12.01.2023 08:54 9,2 C 7,8 C 5,0 C 95 % 1007,0 hPa 0,2 l/m 0 min 2 min 0 W/m 35,4 km/h (5 Bft) 95,74 %
12.01.2023 08:56 9,2 C 7,8 C 5,6 C 95 % 1007,0 hPa 0,0 l/m 0 min 2 min 0 W/m 38,6 km/h (5 Bft) 97,87 %
12.01.2023 08:58 9,2 C 7,8 C 5,6 C 95 % 1007,0 hPa 0,0 l/m 0 min 2 min 0 W/m 35,4 km/h (5 Bft) 97,87 %
12.01.2023 09:00 9,2 C 7,8 C 5,6 C 95 % 1006,9 hPa 0,0 l/m 0 min 2 min 0 W/m 54,7 km/h (7 Bft) 95,74 %
12.01.2023 09:02 9,2 C 7,8 C 5,6 C 95 % 1006,9 hPa 0,2 l/m 0 min 2 min 0 W/m 35,4 km/h (5 Bft) 97,87 %
12.01.2023 09:04 9,3 C 7,8 C 5,6 C 95 % 1006,9 hPa 0,0 l/m 0 min 2 min 0 W/m 32,2 km/h (5 Bft) 95,65 %
12.01.2023 09:06 9,3 C 7,8 C 5,6 C 95 % 1007,1 hPa 0,0 l/m 0 min 2 min 0 W/m 35,4 km/h (5 Bft) 95,74 %
12.01.2023 09:08 9,2 C 7,8 C 5,6 C 95 % 1007,1 hPa 0,0 l/m 0 min 2 min 0 W/m 25,7 km/h (4 Bft) 97,87 %
12.01.2023 09:10 9,2 C 7,8 C 5,6 C 95 % 1007,1 hPa 0,0 l/m 0 min 2 min 0 W/m 32,2 km/h (5 Bft) 97,87 %
12.01.2023 09:12 9,2 C 7,8 C 5,6 C 95 % 1007,2 hPa 0,0 l/m 0 min 2 min 2 W/m 29,0 km/h (5 Bft) 95,74 %
12.01.2023 09:14 9,2 C 7,8 C 5,6 C 95 % 1007,2 hPa 0,0 l/m 0 min 2 min 6 W/m 29,0 km/h (5 Bft) 97,87 %
12.01.2023 09:16 9,2 C 7,8 C 5,6 C 95 % 1007,2 hPa 0,2 l/m 0 min 2 min 9 W/m 41,8 km/h (6 Bft) 97,83 %
12.01.2023 09:18 9,3 C 7,8 C 5,6 C 95 % 1007,0 hPa 0,0 l/m 0 min 2 min 11 W/m 38,6 km/h (5 Bft) 95,74 %
12.01.2023 09:20 9,3 C 7,8 C 5,6 C 95 % 1007,0 hPa 0,0 l/m 0 min 2 min 11 W/m 29,0 km/h (5 Bft) 97,87 %
12.01.2023 09:22 9,3 C 7,8 C 5,6 C 95 % 1007,2 hPa 0,0 l/m 0 min 2 min 11 W/m 29,0 km/h (5 Bft) 95,74 %
12.01.2023 09:24 9,3 C 7,8 C 5,6 C 95 % 1007,2 hPa 0,0 l/m 0 min 2 min 11 W/m 35,4 km/h (5 Bft) 53,19 %
12.01.2023 09:26 9,3 C 7,8 C 5,6 C 95 % 1007,2 hPa 0,0 l/m 0 min 2 min 12 W/m 38,6 km/h (5 Bft) 100,00 %
12.01.2023 09:28 9,3 C 7,8 C 5,6 C 95 % 1007,2 hPa 0,2 l/m 0 min 2 min 12 W/m 32,2 km/h (5 Bft) 100,00 %
12.01.2023 09:30 9,3 C 7,8 C 5,6 C 95 % 1007,3 hPa 0,0 l/m 0 min 2 min 11 W/m 25,7 km/h (4 Bft) 97,87 %
12.01.2023 09:32 9,3 C 7,8 C 5,6 C 95 % 1007,2 hPa 0,0 l/m 0 min 2 min 12 W/m 25,7 km/h (4 Bft) 100,00 %
12.01.2023 09:34 9,3 C 7,8 C 5,6 C 95 % 1007,0 hPa 0,0 l/m 0 min 2 min 12 W/m 45,1 km/h (6 Bft) 100,00 %
12.01.2023 09:36 9,4 C 7,8 C 5,6 C 95 % 1007,1 hPa 0,0 l/m 0 min 2 min 13 W/m 45,1 km/h (6 Bft) 95,56 %
12.01.2023 09:38 9,4 C 7,8 C 5,6 C 95 % 1007,0 hPa 0,0 l/m 0 min 2 min 16 W/m 45,1 km/h (6 Bft) 97,83 %
12.01.2023 09:40 9,4 C 7,8 C 5,6 C 95 % 1007,3 hPa 0,0 l/m 0 min 2 min 15 W/m 35,4 km/h (5 Bft) 100,00 %
12.01.2023 09:42 9,4 C 7,8 C 5,6 C 95 % 1007,2 hPa 0,0 l/m 0 min 2 min 16 W/m 29,0 km/h (5 Bft) 97,87 %
12.01.2023 09:44 9,4 C 7,8 C 5,6 C 95 % 1007,2 hPa 0,2 l/m 0 min 2 min 16 W/m 29,0 km/h (5 Bft) 97,87 %
12.01.2023 09:46 9,4 C 7,8 C 5,6 C 95 % 1007,2 hPa 0,0 l/m 0 min 2 min 16 W/m 35,4 km/h (5 Bft) 97,87 %
12.01.2023 09:48 9,4 C 8,3 C 5,6 C 95 % 1007,5 hPa 0,0 l/m 0 min 2 min 13 W/m 48,3 km/h (6 Bft) 95,65 %
12.01.2023 09:50 9,4 C 8,3 C 5,6 C 95 % 1007,2 hPa 0,0 l/m 0 min 2 min 12 W/m 29,0 km/h (5 Bft) 97,87 %
12.01.2023 09:52 9,5 C 8,3 C 5,6 C 95 % 1007,3 hPa 0,0 l/m 0 min 2 min 14 W/m 29,0 km/h (5 Bft) 97,83 %
12.01.2023 09:54 9,5 C 8,3 C 5,6 C 95 % 1007,3 hPa 0,0 l/m 0 min 2 min 16 W/m 54,7 km/h (7 Bft) 97,87 %
12.01.2023 09:56 9,5 C 8,3 C 5,6 C 95 % 1007,3 hPa 0,0 l/m 0 min 2 min 17 W/m 41,8 km/h (6 Bft) 95,74 %
12.01.2023 09:58 9,5 C 8,3 C 5,6 C 95 % 1007,3 hPa 0,0 l/m 0 min 2 min 16 W/m 22,5 km/h (4 Bft) 95,74 %
12.01.2023 10:00 9,5 C 8,3 C 5,6 C 95 % 1007,3 hPa 0,0 l/m 0 min 2 min 16 W/m 25,7 km/h (4 Bft) 97,87 %
12.01.2023 10:02 9,6 C 8,3 C 5,6 C 95 % 1007,3 hPa 0,2 l/m 0 min 2 min 16 W/m 35,4 km/h (5 Bft) 97,96 %
12.01.2023 10:04 9,5 C 8,3 C 5,6 C 95 % 1007,5 hPa 0,0 l/m 0 min 2 min 16 W/m 35,4 km/h (5 Bft) 97,87 %
12.01.2023 10:06 9,6 C 8,3 C 5,6 C 95 % 1007,5 hPa 0,0 l/m 0 min 2 min 19 W/m 25,7 km/h (4 Bft) 95,74 %
12.01.2023 10:08 9,6 C 8,3 C 5,6 C 95 % 1007,4 hPa 0,0 l/m 0 min 2 min 21 W/m 38,6 km/h (5 Bft) 95,65 %
12.01.2023 10:10 9,6 C 8,3 C 5,6 C 95 % 1007,4 hPa 0,0 l/m 0 min 2 min 20 W/m 38,6 km/h (5 Bft) 97,87 %
12.01.2023 10:12 9,6 C 8,3 C 5,6 C 95 % 1007,5 hPa 0,0 l/m 0 min 2 min 19 W/m 29,0 km/h (5 Bft) 97,87 %
12.01.2023 10:14 9,6 C 8,3 C 5,6 C 95 % 1007,4 hPa 0,0 l/m 0 min 2 min 20 W/m 38,6 km/h (5 Bft) 97,87 %
12.01.2023 10:16 9,6 C 8,3 C 5,6 C 95 % 1007,4 hPa 0,0 l/m 0 min 2 min 25 W/m 25,7 km/h (4 Bft) 97,62 %
12.01.2023 10:18 9,6 C 8,3 C 5,6 C 95 % 1007,4 hPa 0,0 l/m 0 min 2 min 26 W/m 25,7 km/h (4 Bft) 97,83 %
12.01.2023 10:20 9,6 C 8,3 C 5,6 C 95 % 1007,4 hPa 0,0 l/m 0 min 2 min 26 W/m 41,8 km/h (6 Bft) 93,62 %
12.01.2023 10:22 9,6 C 8,3 C 5,6 C 95 % 1007,4 hPa 0,0 l/m 0 min 2 min 28 W/m 38,6 km/h (5 Bft) 97,87 %
12.01.2023 10:24 9,7 C 8,3 C 6,1 C 95 % 1007,3 hPa 0,0 l/m 0 min 2 min 27 W/m 35,4 km/h (5 Bft) 97,87 %
12.01.2023 10:26 9,7 C 8,3 C 6,1 C 95 % 1007,5 hPa 0,0 l/m 0 min 2 min 27 W/m 38,6 km/h (5 Bft) 93,62 %
12.01.2023 10:28 9,7 C 8,3 C 6,1 C 95 % 1007,5 hPa 0,0 l/m 0 min 2 min 26 W/m 22,5 km/h (4 Bft) 97,87 %
12.01.2023 10:30 9,7 C 8,3 C 6,1 C 95 % 1007,4 hPa 0,0 l/m 0 min 2 min 28 W/m 38,6 km/h (5 Bft) 95,74 %
12.01.2023 10:32 9,7 C 8,3 C 6,1 C 95 % 1007,4 hPa 0,0 l/m 0 min 2 min 30 W/m 48,3 km/h (6 Bft) 97,83 %
12.01.2023 10:34 9,7 C 8,3 C 6,1 C 95 % 1007,4 hPa 0,0 l/m 0 min 2 min 33 W/m 45,1 km/h (6 Bft) 100,00 %
12.01.2023 10:36 9,7 C 8,9 C 6,1 C 95 % 1007,4 hPa 0,0 l/m 0 min 2 min 43 W/m 38,6 km/h (5 Bft) 97,87 %
12.01.2023 10:38 9,8 C 8,9 C 6,1 C 95 % 1007,4 hPa 0,0 l/m 0 min 2 min 49 W/m 51,5 km/h (7 Bft) 97,87 %
12.01.2023 10:40 9,8 C 8,9 C 6,1 C 95 % 1007,5 hPa 0,0 l/m 0 min 2 min 56 W/m 25,7 km/h (4 Bft) 97,87 %
12.01.2023 10:42 9,8 C 8,9 C 6,1 C 95 % 1007,6 hPa 0,0 l/m 0 min 2 min 56 W/m 48,3 km/h (6 Bft) 95,74 %
12.01.2023 10:44 9,8 C 8,9 C 6,1 C 95 % 1007,6 hPa 0,2 l/m 0 min 2 min 50 W/m 45,1 km/h (6 Bft) 93,48 %
12.01.2023 10:46 9,9 C 8,9 C 6,1 C 95 % 1007,7 hPa 0,0 l/m 0 min 2 min 47 W/m 22,5 km/h (4 Bft) 95,74 %
12.01.2023 10:48 9,9 C 8,9 C 6,1 C 95 % 1007,7 hPa 0,0 l/m 0 min 2 min 44 W/m 38,6 km/h (5 Bft) 97,87 %
12.01.2023 10:50 9,9 C 8,9 C 6,1 C 95 % 1007,7 hPa 0,0 l/m 0 min 2 min 53 W/m 25,7 km/h (4 Bft) 97,87 %
12.01.2023 10:52 9,9 C 8,9 C 6,1 C 95 % 1007,7 hPa 0,0 l/m 0 min 2 min 52 W/m 57,9 km/h (7 Bft) 97,87 %
12.01.2023 10:54 9,9 C 8,9 C 6,1 C 95 % 1007,8 hPa 0,0 l/m 0 min 2 min 39 W/m 22,5 km/h (4 Bft) 97,67 %
12.01.2023 10:56 9,9 C 8,9 C 6,1 C 95 % 1007,8 hPa 0,0 l/m 0 min 2 min 41 W/m 22,5 km/h (4 Bft) 97,87 %
12.01.2023 10:58 9,9 C 8,9 C 6,1 C 95 % 1007,8 hPa 0,0 l/m 0 min 2 min 39 W/m 32,2 km/h (5 Bft) 97,87 %
12.01.2023 11:00 9,9 C 8,9 C 6,1 C 95 % 1007,8 hPa 0,0 l/m 0 min 2 min 42 W/m 38,6 km/h (5 Bft) 97,87 %
12.01.2023 11:02 9,9 C 8,9 C 6,1 C 95 % 1007,8 hPa 0,0 l/m 0 min 2 min 49 W/m 19,3 km/h (3 Bft) 95,65 %
12.01.2023 11:04 9,9 C 8,9 C 6,1 C 95 % 1007,8 hPa 0,0 l/m 0 min 2 min 62 W/m 45,1 km/h (6 Bft) 98,15 %
12.01.2023 11:06 9,9 C 8,9 C 6,1 C 95 % 1007,9 hPa 0,0 l/m 0 min 2 min 56 W/m 38,6 km/h (5 Bft) 98,00 %
12.01.2023 11:08 10,0 C 8,9 C 6,1 C 95 % 1008,0 hPa 0,0 l/m 0 min 2 min 48 W/m 32,2 km/h (5 Bft) 97,83 %
12.01.2023 11:10 10,0 C 8,9 C 6,1 C 95 % 1008,0 hPa 0,0 l/m 0 min 2 min 47 W/m 38,6 km/h (5 Bft) 100,00 %
12.01.2023 11:12 10,0 C 8,9 C 6,1 C 95 % 1008,0 hPa 0,0 l/m 0 min 2 min 54 W/m 22,5 km/h (4 Bft) 97,87 %
12.01.2023 11:14 10,0 C 8,9 C 6,1 C 95 % 1007,9 hPa 0,0 l/m 0 min 2 min 49 W/m 25,7 km/h (4 Bft) 95,74 %
12.01.2023 11:16 10,0 C 8,9 C 6,1 C 95 % 1008,0 hPa 0,0 l/m 0 min 2 min 43 W/m 29,0 km/h (5 Bft) 97,87 %
12.01.2023 11:18 10,0 C 8,9 C 6,1 C 95 % 1008,2 hPa 0,0 l/m 0 min 2 min 46 W/m 35,4 km/h (5 Bft) 93,62 %
12.01.2023 11:20 10,0 C 8,9 C 6,1 C 95 % 1008,0 hPa 0,0 l/m 0 min 2 min 49 W/m 32,2 km/h (5 Bft) 93,62 %
12.01.2023 11:22 10,0 C 8,9 C 6,1 C 95 % 1008,0 hPa 0,0 l/m 0 min 2 min 46 W/m 19,3 km/h (3 Bft) 95,65 %
12.01.2023 11:24 10,0 C 8,9 C 6,1 C 95 % 1007,9 hPa 0,0 l/m 0 min 2 min 40 W/m 45,1 km/h (6 Bft) 97,87 %
12.01.2023 11:26 10,0 C 8,9 C 6,1 C 95 % 1008,0 hPa 0,0 l/m 0 min 2 min 42 W/m 29,0 km/h (5 Bft) 95,74 %
12.01.2023 11:28 10,0 C 8,9 C 6,1 C 95 % 1008,0 hPa 0,0 l/m 0 min 2 min 43 W/m 19,3 km/h (3 Bft) 97,87 %
12.01.2023 11:30 10,0 C 8,9 C 6,1 C 95 % 1008,0 hPa 0,0 l/m 0 min 2 min 38 W/m 25,7 km/h (4 Bft) 93,62 %
12.01.2023 11:32 10,0 C 8,9 C 6,1 C 95 % 1008,0 hPa 0,0 l/m 0 min 2 min 40 W/m 35,4 km/h (5 Bft) 97,96 %
12.01.2023 11:34 10,1 C 8,9 C 6,1 C 95 % 1008,0 hPa 0,0 l/m 0 min 2 min 44 W/m 29,0 km/h (5 Bft) 95,65 %
12.01.2023 11:36 10,1 C 8,9 C 6,1 C 95 % 1008,0 hPa 0,0 l/m 0 min 2 min 46 W/m 22,5 km/h (4 Bft) 97,87 %
12.01.2023 11:38 10,1 C 8,9 C 6,1 C 95 % 1008,0 hPa 0,0 l/m 0 min 2 min 42 W/m 19,3 km/h (3 Bft) 95,74 %
12.01.2023 11:40 10,1 C 9,4 C 6,1 C 95 % 1007,9 hPa 0,0 l/m 0 min 2 min 43 W/m 48,3 km/h (6 Bft) 95,74 %
12.01.2023 11:42 10,1 C 9,4 C 6,1 C 95 % 1007,9 hPa 0,0 l/m 0 min 2 min 59 W/m 41,8 km/h (6 Bft) 97,87 %
12.01.2023 11:44 10,1 C 9,4 C 6,7 C 95 % 1008,1 hPa 0,0 l/m 0 min 2 min 59 W/m 35,4 km/h (5 Bft) 95,74 %
12.01.2023 11:46 10,1 C 9,4 C 6,7 C 95 % 1008,0 hPa 0,2 l/m 0 min 0 min 52 W/m 32,2 km/h (5 Bft) 95,65 %
12.01.2023 11:48 10,1 C 9,4 C 6,7 C 95 % 1007,9 hPa 0,0 l/m 0 min 0 min 48 W/m 35,4 km/h (5 Bft) 89,36 %
12.01.2023 11:50 10,2 C 9,4 C 6,7 C 95 % 1008,0 hPa 0,0 l/m 0 min 0 min 46 W/m 51,5 km/h (7 Bft) 93,62 %
12.01.2023 11:52 10,2 C 9,4 C 6,7 C 95 % 1008,0 hPa 0,0 l/m 0 min 0 min 45 W/m 35,4 km/h (5 Bft) 91,49 %
12.01.2023 11:54 10,2 C 9,4 C 6,7 C 95 % 1007,9 hPa 0,0 l/m 0 min 0 min 43 W/m 25,7 km/h (4 Bft) 93,62 %
12.01.2023 11:56 10,2 C 9,4 C 6,7 C 95 % 1007,9 hPa 0,0 l/m 0 min 0 min 40 W/m 25,7 km/h (4 Bft) 93,62 %
12.01.2023 11:58 10,2 C 9,4 C 6,7 C 95 % 1007,9 hPa 0,0 l/m 0 min 0 min 40 W/m 32,2 km/h (5 Bft) 95,65 %
12.01.2023 12:00 10,2 C 9,4 C 6,7 C 95 % 1008,0 hPa 0,0 l/m 0 min 0 min 34 W/m 29,0 km/h (5 Bft) 93,62 %
12.01.2023 12:02 10,2 C 9,4 C 6,7 C 95 % 1008,1 hPa 0,0 l/m 0 min 0 min 34 W/m 19,3 km/h (3 Bft) 97,87 %
12.01.2023 12:04 10,2 C 9,4 C 6,7 C 95 % 1007,9 hPa 0,0 l/m 0 min 0 min 29 W/m 22,5 km/h (4 Bft) 97,87 %
12.01.2023 12:07 10,2 C 9,4 C 6,7 C 95 % 1008,0 hPa 0,0 l/m 0 min 3 min 30 W/m 29,0 km/h (5 Bft) 97,18 %
12.01.2023 12:08 10,2 C 9,4 C 6,7 C 95 % 1008,0 hPa 0,0 l/m 0 min 1 min 30 W/m 16,1 km/h (3 Bft) 100,00 %
12.01.2023 12:10 10,2 C 9,4 C 6,7 C 95 % 1008,0 hPa 0,0 l/m 0 min 2 min 33 W/m 35,4 km/h (5 Bft) 95,74 %
12.01.2023 12:12 10,2 C 9,4 C 6,7 C 95 % 1008,0 hPa 0,0 l/m 0 min 2 min 44 W/m 22,5 km/h (4 Bft) 97,87 %
12.01.2023 12:14 10,2 C 9,4 C 6,7 C 95 % 1007,9 hPa 0,0 l/m 0 min 2 min 52 W/m 29,0 km/h (5 Bft) 97,87 %
12.01.2023 12:16 10,2 C 9,4 C 6,7 C 95 % 1007,9 hPa 0,0 l/m 0 min 2 min 48 W/m 35,4 km/h (5 Bft) 100,00 %
12.01.2023 12:18 10,2 C 9,4 C 6,7 C 95 % 1007,9 hPa 0,0 l/m 0 min 2 min 48 W/m 35,4 km/h (5 Bft) 100,00 %
12.01.2023 12:20 10,2 C 9,4 C 6,7 C 95 % 1007,9 hPa 0,0 l/m 0 min 2 min 42 W/m 35,4 km/h (5 Bft) 100,00 %
12.01.2023 12:22 10,2 C 9,4 C 6,7 C 95 % 1007,9 hPa 0,0 l/m 0 min 2 min 46 W/m 29,0 km/h (5 Bft) 100,00 %
12.01.2023 12:24 10,2 C 9,4 C 6,7 C 95 % 1007,8 hPa 0,0 l/m 0 min 2 min 42 W/m 48,3 km/h (6 Bft) 100,00 %
12.01.2023 12:26 10,2 C 9,4 C 6,7 C 95 % 1007,9 hPa 0,0 l/m 0 min 2 min 37 W/m 48,3 km/h (6 Bft) 100,00 %
12.01.2023 12:28 10,2 C 9,4 C 6,7 C 95 % 1007,9 hPa 0,0 l/m 0 min 0 min 36 W/m 41,8 km/h (6 Bft) 100,00 %
12.01.2023 12:30 10,2 C 9,4 C 6,7 C 95 % 1007,9 hPa 0,0 l/m 0 min 0 min 39 W/m 38,6 km/h (5 Bft) 100,00 %
12.01.2023 12:32 10,2 C 9,4 C 6,7 C 95 % 1007,8 hPa 0,0 l/m 0 min 0 min 38 W/m 25,7 km/h (4 Bft) 100,00 %
12.01.2023 12:34 10,3 C 9,4 C 6,7 C 95 % 1007,9 hPa 0,0 l/m 0 min 0 min 40 W/m 48,3 km/h (6 Bft) 97,87 %
12.01.2023 12:36 10,3 C 9,4 C 6,7 C 95 % 1008,0 hPa 0,0 l/m 0 min 0 min 36 W/m 29,0 km/h (5 Bft) 97,87 %
12.01.2023 12:38 10,3 C 9,4 C 6,7 C 95 % 1007,9 hPa 0,0 l/m 0 min 0 min 32 W/m 48,3 km/h (6 Bft) 100,00 %
12.01.2023 12:40 10,3 C 9,4 C 6,7 C 95 % 1007,8 hPa 0,0 l/m 0 min 0 min 34 W/m 32,2 km/h (5 Bft) 100,00 %
12.01.2023 12:42 10,3 C 9,4 C 6,7 C 95 % 1008,0 hPa 0,0 l/m 0 min 0 min 34 W/m 35,4 km/h (5 Bft) 97,87 %
12.01.2023 12:44 10,3 C 9,4 C 6,7 C 95 % 1007,9 hPa 0,0 l/m 0 min 0 min 36 W/m 22,5 km/h (4 Bft) 100,00 %
12.01.2023 12:46 10,3 C 9,4 C 6,7 C 95 % 1007,9 hPa 0,0 l/m 0 min 0 min 38 W/m 22,5 km/h (4 Bft) 100,00 %
12.01.2023 12:48 10,3 C 9,4 C 6,7 C 94 % 1007,8 hPa 0,0 l/m 0 min 0 min 39 W/m 29,0 km/h (5 Bft) 100,00 %
12.01.2023 12:50 10,3 C 10,0 C 6,7 C 94 % 1007,8 hPa 0,0 l/m 0 min 0 min 42 W/m 22,5 km/h (4 Bft) 100,00 %
12.01.2023 12:52 10,3 C 9,4 C 6,7 C 94 % 1007,9 hPa 0,0 l/m 0 min 2 min 42 W/m 25,7 km/h (4 Bft) 100,00 %
12.01.2023 12:54 10,3 C 9,4 C 6,7 C 94 % 1007,8 hPa 0,0 l/m 0 min 2 min 46 W/m 45,1 km/h (6 Bft) 100,00 %
12.01.2023 12:56 10,3 C 9,4 C 6,7 C 94 % 1007,8 hPa 0,0 l/m 0 min 2 min 48 W/m 41,8 km/h (6 Bft) 100,00 %
12.01.2023 12:58 10,3 C 9,4 C 6,7 C 94 % 1007,8 hPa 0,0 l/m 0 min 2 min 47 W/m 54,7 km/h (7 Bft) 100,00 %
12.01.2023 13:00 10,3 C 9,4 C 6,7 C 94 % 1007,8 hPa 0,0 l/m 0 min 2 min 48 W/m 38,6 km/h (5 Bft) 100,00 %
12.01.2023 13:02 10,3 C 9,4 C 6,7 C 95 % 1007,7 hPa 0,0 l/m 0 min 2 min 57 W/m 22,5 km/h (4 Bft) 100,00 %
12.01.2023 13:04 10,3 C 9,4 C 6,7 C 95 % 1007,7 hPa 0,0 l/m 0 min 2 min 52 W/m 41,8 km/h (6 Bft) 100,00 %
12.01.2023 13:06 10,3 C 9,4 C 6,7 C 95 % 1007,8 hPa 0,0 l/m 0 min 2 min 54 W/m 35,4 km/h (5 Bft) 100,00 %
12.01.2023 13:08 10,3 C 9,4 C 6,7 C 95 % 1007,8 hPa 0,0 l/m 0 min 2 min 56 W/m 35,4 km/h (5 Bft) 100,00 %
12.01.2023 13:10 10,3 C 9,4 C 6,7 C 95 % 1007,7 hPa 0,0 l/m 0 min 2 min 58 W/m 41,8 km/h (6 Bft) 100,00 %
12.01.2023 13:12 10,3 C 9,4 C 6,7 C 95 % 1007,7 hPa 0,0 l/m 0 min 2 min 53 W/m 25,7 km/h (4 Bft) 100,00 %
12.01.2023 13:14 10,3 C 9,4 C 6,7 C 95 % 1007,8 hPa 0,0 l/m 0 min 2 min 56 W/m 38,6 km/h (5 Bft) 100,00 %
12.01.2023 13:16 10,3 C 9,4 C 6,7 C 95 % 1007,7 hPa 0,0 l/m 0 min 2 min 62 W/m 48,3 km/h (6 Bft) 97,87 %
12.01.2023 13:18 10,3 C 9,4 C 6,7 C 95 % 1007,8 hPa 0,0 l/m 0 min 2 min 64 W/m 25,7 km/h (4 Bft) 97,87 %
12.01.2023 13:20 10,3 C 9,4 C 6,7 C 95 % 1007,7 hPa 0,0 l/m 0 min 2 min 66 W/m 35,4 km/h (5 Bft) 97,83 %
12.01.2023 13:22 10,3 C 9,4 C 6,7 C 95 % 1007,6 hPa 0,0 l/m 0 min 2 min 62 W/m 41,8 km/h (6 Bft) 97,87 %
12.01.2023 13:24 10,3 C 9,4 C 6,7 C 95 % 1007,7 hPa 0,0 l/m 0 min 2 min 58 W/m 45,1 km/h (6 Bft) 95,74 %
12.01.2023 13:26 10,3 C 9,4 C 6,7 C 95 % 1007,7 hPa 0,0 l/m 0 min 2 min 63 W/m 35,4 km/h (5 Bft) 97,87 %
12.01.2023 13:28 10,3 C 9,4 C 6,7 C 95 % 1007,6 hPa 0,0 l/m 0 min 2 min 71 W/m 32,2 km/h (5 Bft) 97,87 %
12.01.2023 13:30 10,3 C 9,4 C 6,7 C 95 % 1007,6 hPa 0,0 l/m 0 min 2 min 70 W/m 48,3 km/h (6 Bft) 97,87 %
12.01.2023 13:32 10,4 C 9,4 C 6,7 C 95 % 1007,6 hPa 0,0 l/m 0 min 2 min 73 W/m 35,4 km/h (5 Bft) 97,87 %
12.01.2023 13:34 10,4 C 9,4 C 6,7 C 95 % 1007,6 hPa 0,0 l/m 0 min 2 min 74 W/m 38,6 km/h (5 Bft) 95,65 %
12.01.2023 13:36 10,4 C 9,4 C 6,7 C 95 % 1007,6 hPa 0,0 l/m 0 min 2 min 78 W/m 48,3 km/h (6 Bft) 97,87 %
12.01.2023 13:38 10,4 C 9,4 C 6,7 C 95 % 1007,5 hPa 0,0 l/m 0 min 2 min 74 W/m 70,8 km/h (8 Bft) 93,62 %
12.01.2023 13:40 10,4 C 9,4 C 6,7 C 95 % 1007,5 hPa 0,0 l/m 0 min 2 min 61 W/m 45,1 km/h (6 Bft) 93,62 %
12.01.2023 13:42 10,4 C 9,4 C 6,7 C 95 % 1007,5 hPa 0,0 l/m 0 min 2 min 58 W/m 41,8 km/h (6 Bft) 93,62 %
12.01.2023 13:44 10,4 C 9,4 C 6,7 C 95 % 1007,6 hPa 0,0 l/m 0 min 2 min 62 W/m 29,0 km/h (5 Bft) 93,62 %
12.01.2023 13:46 10,4 C 9,4 C 6,7 C 95 % 1007,5 hPa 0,0 l/m 0 min 2 min 60 W/m 29,0 km/h (5 Bft) 95,65 %
12.01.2023 13:48 10,4 C 9,4 C 6,7 C 95 % 1007,5 hPa 0,2 l/m 0 min 2 min 59 W/m 45,1 km/h (6 Bft) 95,74 %
12.01.2023 13:50 10,4 C 9,4 C 6,7 C 95 % 1007,7 hPa 0,0 l/m 0 min 2 min 51 W/m 51,5 km/h (7 Bft) 93,62 %
12.01.2023 13:52 10,4 C 9,4 C 6,7 C 95 % 1007,5 hPa 0,0 l/m 0 min 2 min 52 W/m 41,8 km/h (6 Bft) 93,62 %
12.01.2023 13:54 10,4 C 9,4 C 6,7 C 95 % 1007,5 hPa 0,0 l/m 0 min 2 min 58 W/m 45,1 km/h (6 Bft) 95,65 %
12.01.2023 13:56 10,4 C 9,4 C 6,7 C 94 % 1007,4 hPa 0,0 l/m 0 min 2 min 63 W/m 32,2 km/h (5 Bft) 90,91 %
12.01.2023 13:58 10,4 C 9,4 C 6,7 C 94 % 1007,5 hPa 0,0 l/m 0 min 2 min 57 W/m 19,3 km/h (3 Bft) 93,62 %
12.01.2023 14:00 10,4 C 9,4 C 6,7 C 94 % 1007,3 hPa 0,0 l/m 0 min 2 min 49 W/m 35,4 km/h (5 Bft) 92,00 %
12.01.2023 14:02 10,4 C 9,4 C 6,7 C 94 % 1007,5 hPa 0,0 l/m 0 min 2 min 46 W/m 32,2 km/h (5 Bft) 91,49 %
12.01.2023 14:04 10,4 C 9,4 C 6,7 C 94 % 1007,5 hPa 0,0 l/m 0 min 2 min 47 W/m 48,3 km/h (6 Bft) 93,62 %
12.01.2023 14:06 10,4 C 9,4 C 6,7 C 94 % 1007,5 hPa 0,0 l/m 0 min 2 min 44 W/m 41,8 km/h (6 Bft) 93,62 %
12.01.2023 14:08 10,4 C 9,4 C 6,7 C 94 % 1007,5 hPa 0,2 l/m 0 min 2 min 43 W/m 32,2 km/h (5 Bft) 91,49 %
12.01.2023 14:10 10,4 C 9,4 C 6,7 C 94 % 1007,4 hPa 0,0 l/m 0 min 2 min 41 W/m 38,6 km/h (5 Bft) 97,14 %
12.01.2023 14:12 10,4 C 9,4 C 6,7 C 94 % 1007,4 hPa 0,0 l/m 0 min 2 min 50 W/m 29,0 km/h (5 Bft) 95,92 %
12.01.2023 14:14 10,4 C 9,4 C 6,7 C 95 % 1007,4 hPa 0,0 l/m 0 min 2 min 51 W/m 22,5 km/h (4 Bft) 97,87 %
12.01.2023 14:16 10,3 C 9,4 C 6,7 C 95 % 1007,4 hPa 0,0 l/m 0 min 2 min 49 W/m 29,0 km/h (5 Bft) 98,15 %
12.01.2023 14:18 10,4 C 9,4 C 6,7 C 95 % 1007,4 hPa 0,0 l/m 0 min 2 min 42 W/m 35,4 km/h (5 Bft) 97,37 %
12.01.2023 14:20 10,3 C 9,4 C 6,7 C 95 % 1007,3 hPa 0,0 l/m 0 min 2 min 39 W/m 25,7 km/h (4 Bft) 95,74 %
12.01.2023 14:22 10,3 C 9,4 C 6,7 C 95 % 1007,3 hPa 0,0 l/m 0 min 2 min 38 W/m 29,0 km/h (5 Bft) 95,83 %
12.01.2023 14:24 10,3 C 9,4 C 6,7 C 95 % 1007,3 hPa 0,0 l/m 0 min 2 min 34 W/m 32,2 km/h (5 Bft) 97,87 %
12.01.2023 14:26 10,3 C 9,4 C 6,7 C 95 % 1007,2 hPa 0,0 l/m 0 min 2 min 35 W/m 25,7 km/h (4 Bft) 97,87 %
12.01.2023 14:28 10,3 C 9,4 C 6,7 C 95 % 1007,3 hPa 0,0 l/m 0 min 2 min 35 W/m 32,2 km/h (5 Bft) 95,74 %
12.01.2023 14:30 10,3 C 9,4 C 6,7 C 95 % 1007,3 hPa 0,2 l/m 0 min 2 min 38 W/m 25,7 km/h (4 Bft) 97,87 %
12.01.2023 14:32 10,3 C 9,4 C 6,7 C 95 % 1007,4 hPa 0,0 l/m 0 min 2 min 44 W/m 32,2 km/h (5 Bft) 95,74 %
12.01.2023 14:34 10,3 C 9,4 C 6,7 C 95 % 1007,2 hPa 0,0 l/m 0 min 2 min 48 W/m 35,4 km/h (5 Bft) 100,00 %
12.01.2023 14:36 10,3 C 9,4 C 6,7 C 95 % 1007,2 hPa 0,0 l/m 0 min 2 min 42 W/m 35,4 km/h (5 Bft) 93,48 %
12.01.2023 14:38 10,3 C 9,4 C 6,7 C 95 % 1007,3 hPa 0,0 l/m 0 min 2 min 42 W/m 29,0 km/h (5 Bft) 100,00 %
12.01.2023 14:40 10,3 C 9,4 C 6,7 C 95 % 1007,2 hPa 0,0 l/m 0 min 2 min 40 W/m 32,2 km/h (5 Bft) 100,00 %
12.01.2023 14:42 10,3 C 9,4 C 6,7 C 95 % 1007,2 hPa 0,0 l/m 0 min 2 min 40 W/m 29,0 km/h (5 Bft) 100,00 %
12.01.2023 14:44 10,3 C 9,4 C 6,7 C 95 % 1007,2 hPa 0,0 l/m 0 min 2 min 39 W/m 25,7 km/h (4 Bft) 100,00 %
12.01.2023 14:46 10,3 C 9,4 C 6,7 C 95 % 1007,2 hPa 0,0 l/m 0 min 2 min 38 W/m 35,4 km/h (5 Bft) 100,00 %
12.01.2023 14:48 10,3 C 9,4 C 6,7 C 95 % 1007,1 hPa 0,0 l/m 0 min 2 min 41 W/m 25,7 km/h (4 Bft) 97,83 %
12.01.2023 14:50 10,3 C 9,4 C 6,7 C 95 % 1007,1 hPa 0,0 l/m 0 min 2 min 37 W/m 61,2 km/h (7 Bft) 100,00 %
12.01.2023 14:52 10,3 C 9,4 C 6,7 C 95 % 1007,1 hPa 0,0 l/m 0 min 2 min 37 W/m 38,6 km/h (5 Bft) 100,00 %
12.01.2023 14:54 10,3 C 9,4 C 6,7 C 95 % 1007,2 hPa 0,2 l/m 0 min 2 min 37 W/m 45,1 km/h (6 Bft) 97,87 %
12.01.2023 14:56 10,3 C 9,4 C 6,7 C 95 % 1007,2 hPa 0,0 l/m 0 min 2 min 38 W/m 38,6 km/h (5 Bft) 100,00 %
12.01.2023 14:58 10,3 C 9,4 C 6,7 C 95 % 1007,2 hPa 0,0 l/m 0 min 2 min 34 W/m 35,4 km/h (5 Bft) 100,00 %
12.01.2023 15:00 10,3 C 9,4 C 6,7 C 95 % 1007,2 hPa 0,0 l/m 0 min 2 min 36 W/m 38,6 km/h (5 Bft) 97,83 %
12.01.2023 15:02 10,3 C 9,4 C 6,7 C 95 % 1007,1 hPa 0,0 l/m 0 min 2 min 35 W/m 64,4 km/h (8 Bft) 100,00 %
12.01.2023 15:04 10,3 C 9,4 C 6,7 C 95 % 1007,2 hPa 0,0 l/m 0 min 2 min 33 W/m 32,2 km/h (5 Bft) 100,00 %
12.01.2023 15:06 10,3 C 9,4 C 6,7 C 95 % 1007,2 hPa 0,0 l/m 0 min 2 min 29 W/m 41,8 km/h (6 Bft) 100,00 %
12.01.2023 15:08 10,3 C 9,4 C 6,7 C 95 % 1007,2 hPa 0,0 l/m 0 min 2 min 26 W/m 35,4 km/h (5 Bft) 95,74 %
12.01.2023 15:10 10,4 C 9,4 C 6,7 C 95 % 1007,1 hPa 0,0 l/m 0 min 2 min 24 W/m 38,6 km/h (5 Bft) 100,00 %
12.01.2023 15:12 10,3 C 9,4 C 6,7 C 95 % 1007,1 hPa 0,0 l/m 0 min 2 min 26 W/m 45,1 km/h (6 Bft) 97,83 %
12.01.2023 15:14 10,4 C 9,4 C 6,7 C 95 % 1007,2 hPa 0,2 l/m 0 min 2 min 26 W/m 29,0 km/h (5 Bft) 100,00 %
12.01.2023 15:16 10,3 C 8,9 C 6,7 C 95 % 1007,2 hPa 0,0 l/m 0 min 2 min 23 W/m 35,4 km/h (5 Bft) 100,00 %
12.01.2023 15:18 10,3 C 8,9 C 6,7 C 95 % 1007,2 hPa 0,0 l/m 0 min 2 min 20 W/m 35,4 km/h (5 Bft) 100,00 %
12.01.2023 15:20 10,3 C 9,4 C 6,7 C 95 % 1007,1 hPa 0,0 l/m 0 min 2 min 18 W/m 38,6 km/h (5 Bft) 97,87 %
12.01.2023 15:22 10,4 C 9,4 C 6,7 C 95 % 1007,2 hPa 0,0 l/m 0 min 2 min 18 W/m 22,5 km/h (4 Bft) 100,00 %
12.01.2023 15:24 10,4 C 9,4 C 6,7 C 95 % 1007,2 hPa 0,0 l/m 0 min 2 min 18 W/m 25,7 km/h (4 Bft) 97,83 %
12.01.2023 15:26 10,4 C 8,9 C 6,7 C 95 % 1007,2 hPa 0,0 l/m 0 min 2 min 20 W/m 29,0 km/h (5 Bft) 100,00 %
12.01.2023 15:28 10,4 C 9,4 C 6,7 C 95 % 1007,1 hPa 0,0 l/m 0 min 2 min 19 W/m 25,7 km/h (4 Bft) 100,00 %
12.01.2023 15:30 10,4 C 9,4 C 6,7 C 95 % 1007,0 hPa 0,0 l/m 0 min 2 min 19 W/m 25,7 km/h (4 Bft) 97,87 %
12.01.2023 15:32 10,4 C 9,4 C 6,7 C 95 % 1007,1 hPa 0,2 l/m 0 min 2 min 18 W/m 38,6 km/h (5 Bft) 97,87 %
12.01.2023 15:34 10,4 C 9,4 C 6,7 C 95 % 1007,1 hPa 0,0 l/m 0 min 2 min 15 W/m 29,0 km/h (5 Bft) 97,87 %
12.01.2023 15:36 10,4 C 9,4 C 6,7 C 95 % 1007,1 hPa 0,0 l/m 0 min 2 min 15 W/m 22,5 km/h (4 Bft) 97,87 %
12.01.2023 15:38 10,4 C 9,4 C 6,7 C 95 % 1007,1 hPa 0,0 l/m 0 min 2 min 17 W/m 32,2 km/h (5 Bft) 97,83 %
12.01.2023 15:40 10,4 C 9,4 C 6,7 C 95 % 1007,0 hPa 0,0 l/m 0 min 2 min 16 W/m 45,1 km/h (6 Bft) 97,87 %
12.01.2023 15:42 10,4 C 9,4 C 6,7 C 95 % 1007,1 hPa 0,0 l/m 0 min 2 min 16 W/m 45,1 km/h (6 Bft) 97,87 %
12.01.2023 15:44 10,4 C 9,4 C 6,7 C 95 % 1007,0 hPa 0,0 l/m 0 min 2 min 16 W/m 35,4 km/h (5 Bft) 97,87 %
12.01.2023 15:46 10,4 C 9,4 C 6,7 C 95 % 1007,1 hPa 0,0 l/m 0 min 2 min 14 W/m 51,5 km/h (7 Bft) 97,87 %
12.01.2023 15:48 10,4 C 9,4 C 6,7 C 95 % 1007,1 hPa 0,0 l/m 0 min 2 min 13 W/m 32,2 km/h (5 Bft) 95,65 %
12.01.2023 15:50 10,4 C 9,4 C 6,7 C 95 % 1007,0 hPa 0,0 l/m 0 min 2 min 13 W/m 45,1 km/h (6 Bft) 97,87 %
12.01.2023 15:52 10,4 C 9,4 C 6,7 C 95 % 1007,1 hPa 0,0 l/m 0 min 2 min 11 W/m 38,6 km/h (5 Bft) 95,74 %
12.01.2023 15:54 10,4 C 9,4 C 6,7 C 95 % 1007,1 hPa 0,0 l/m 0 min 2 min 12 W/m 38,6 km/h (5 Bft) 97,87 %
12.01.2023 15:56 10,5 C 9,4 C 6,7 C 95 % 1007,1 hPa 0,2 l/m 0 min 2 min 12 W/m 35,4 km/h (5 Bft) 95,74 %
12.01.2023 15:58 10,5 C 9,4 C 6,7 C 95 % 1007,0 hPa 0,0 l/m 0 min 2 min 11 W/m 41,8 km/h (6 Bft) 93,62 %
12.01.2023 16:00 10,5 C 9,4 C 6,7 C 95 % 1006,9 hPa 0,0 l/m 0 min 2 min 11 W/m 35,4 km/h (5 Bft) 97,87 %
12.01.2023 16:02 10,5 C 9,4 C 6,7 C 95 % 1007,0 hPa 0,0 l/m 0 min 2 min 9 W/m 35,4 km/h (5 Bft) 97,83 %
12.01.2023 16:04 10,5 C 9,4 C 6,7 C 95 % 1007,0 hPa 0,0 l/m 0 min 2 min 9 W/m 38,6 km/h (5 Bft) 97,87 %
12.01.2023 16:06 10,5 C 9,4 C 6,7 C 95 % 1007,0 hPa 0,0 l/m 0 min 2 min 10 W/m 45,1 km/h (6 Bft) 100,00 %
12.01.2023 16:08 10,5 C 9,4 C 6,7 C 95 % 1007,0 hPa 0,0 l/m 0 min 2 min 10 W/m 32,2 km/h (5 Bft) 97,87 %
12.01.2023 16:10 10,4 C 9,4 C 6,7 C 95 % 1006,8 hPa 0,0 l/m 0 min 2 min 9 W/m 32,2 km/h (5 Bft) 100,00 %
12.01.2023 16:12 10,4 C 9,4 C 6,7 C 95 % 1006,8 hPa 0,0 l/m 0 min 2 min 7 W/m 54,7 km/h (7 Bft) 100,00 %
12.01.2023 16:14 10,5 C 9,4 C 6,7 C 95 % 1006,9 hPa 0,0 l/m 0 min 2 min 7 W/m 45,1 km/h (6 Bft) 100,00 %
12.01.2023 16:16 10,5 C 9,4 C 6,7 C 94 % 1006,9 hPa 0,0 l/m 0 min 2 min 7 W/m 41,8 km/h (6 Bft) 100,00 %
12.01.2023 16:18 10,5 C 9,4 C 6,7 C 94 % 1006,9 hPa 0,0 l/m 0 min 2 min 7 W/m 35,4 km/h (5 Bft) 100,00 %
12.01.2023 16:20 10,5 C 9,4 C 6,7 C 94 % 1006,8 hPa 0,2 l/m 0 min 2 min 5 W/m 38,6 km/h (5 Bft) 97,87 %
12.01.2023 16:22 10,5 C 9,4 C 6,7 C 94 % 1006,8 hPa 0,0 l/m 0 min 2 min 5 W/m 45,1 km/h (6 Bft) 95,74 %
12.01.2023 16:24 10,5 C 9,4 C 6,7 C 94 % 1006,8 hPa 0,0 l/m 0 min 2 min 5 W/m 41,8 km/h (6 Bft) 55,32 %
12.01.2023 16:26 10,5 C 8,9 C 6,7 C 94 % 1006,9 hPa 0,0 l/m 0 min 2 min 5 W/m 51,5 km/h (7 Bft) 96,77 %
12.01.2023 16:28 10,5 C 8,9 C 6,7 C 94 % 1006,8 hPa 0,0 l/m 0 min 2 min 0 W/m 32,2 km/h (5 Bft) 93,48 %
12.01.2023 16:30 10,5 C 8,9 C 6,7 C 94 % 1006,7 hPa 0,0 l/m 0 min 2 min 0 W/m 57,9 km/h (7 Bft) 97,87 %
12.01.2023 16:32 10,5 C 8,9 C 6,7 C 94 % 1006,7 hPa 0,0 l/m 0 min 2 min 0 W/m 38,6 km/h (5 Bft) 95,74 %
12.01.2023 16:34 10,5 C 8,9 C 6,7 C 94 % 1006,7 hPa 0,0 l/m 0 min 2 min 0 W/m 41,8 km/h (6 Bft) 95,74 %
12.01.2023 16:36 10,5 C 8,9 C 6,7 C 94 % 1006,7 hPa 0,0 l/m 0 min 2 min 0 W/m 38,6 km/h (5 Bft) 95,74 %
12.01.2023 16:38 10,5 C 8,9 C 6,7 C 94 % 1006,7 hPa 0,0 l/m 0 min 2 min 0 W/m 32,2 km/h (5 Bft) 95,74 %
12.01.2023 16:40 10,5 C 8,9 C 6,7 C 94 % 1006,8 hPa 0,0 l/m 0 min 2 min 0 W/m 41,8 km/h (6 Bft) 97,83 %
12.01.2023 16:42 10,5 C 8,9 C 6,7 C 94 % 1006,7 hPa 0,0 l/m 0 min 2 min 0 W/m 38,6 km/h (5 Bft) 95,74 %
12.01.2023 16:44 10,5 C 8,9 C 6,7 C 94 % 1006,8 hPa 0,0 l/m 0 min 2 min 0 W/m 25,7 km/h (4 Bft) 95,74 %
12.01.2023 16:46 10,5 C 8,9 C 6,7 C 94 % 1006,7 hPa 0,0 l/m 0 min 2 min 0 W/m 45,1 km/h (6 Bft) 91,49 %
12.01.2023 16:48 10,5 C 8,9 C 6,7 C 94 % 1006,7 hPa 0,2 l/m 0 min 2 min 0 W/m 29,0 km/h (5 Bft) 95,74 %
12.01.2023 16:50 10,4 C 8,9 C 6,7 C 94 % 1006,7 hPa 0,0 l/m 0 min 2 min 0 W/m 32,2 km/h (5 Bft) 93,62 %
12.01.2023 16:52 10,4 C 8,9 C 6,7 C 94 % 1006,6 hPa 0,0 l/m 0 min 2 min 0 W/m 19,3 km/h (3 Bft) 93,48 %
12.01.2023 16:54 10,4 C 8,9 C 6,7 C 94 % 1006,7 hPa 0,0 l/m 0 min 2 min 0 W/m 35,4 km/h (5 Bft) 95,74 %
12.01.2023 16:56 10,4 C 8,9 C 6,7 C 94 % 1006,6 hPa 0,0 l/m 0 min 2 min 0 W/m 32,2 km/h (5 Bft) 95,74 %
12.01.2023 16:58 10,4 C 8,9 C 6,7 C 94 % 1006,6 hPa 0,0 l/m 0 min 2 min 0 W/m 45,1 km/h (6 Bft) 95,74 %
12.01.2023 17:00 10,4 C 8,9 C 6,7 C 94 % 1006,6 hPa 0,0 l/m 0 min 2 min 0 W/m 32,2 km/h (5 Bft) 95,74 %
12.01.2023 17:02 10,4 C 8,9 C 6,7 C 94 % 1006,6 hPa 0,0 l/m 0 min 2 min 0 W/m 35,4 km/h (5 Bft) 91,49 %
12.01.2023 17:04 10,4 C 8,9 C 6,7 C 94 % 1006,6 hPa 0,0 l/m 0 min 2 min 0 W/m 29,0 km/h (5 Bft) 95,74 %
12.01.2023 17:06 10,4 C 8,9 C 6,7 C 94 % 1006,6 hPa 0,2 l/m 0 min 2 min 0 W/m 54,7 km/h (7 Bft) 95,65 %
12.01.2023 17:10 10,5 C 8,9 C 6,7 C 94 % 1006,6 hPa 0,0 l/m 0 min 4 min 0 W/m 29,0 km/h (5 Bft) 97,11 %
12.01.2023 17:12 10,5 C 8,9 C 6,7 C 94 % 1006,6 hPa 0,0 l/m 0 min 2 min 0 W/m 41,8 km/h (6 Bft) 94,44 %
12.01.2023 17:14 10,5 C 8,9 C 6,7 C 94 % 1006,6 hPa 0,0 l/m 0 min 2 min 0 W/m 41,8 km/h (6 Bft) 95,74 %
12.01.2023 17:16 10,5 C 8,9 C 6,7 C 94 % 1006,6 hPa 0,0 l/m 0 min 2 min 0 W/m 35,4 km/h (5 Bft) 97,87 %
12.01.2023 17:18 10,5 C 9,4 C 6,7 C 94 % 1006,6 hPa 0,0 l/m 0 min 2 min 0 W/m 38,6 km/h (5 Bft) 100,00 %
12.01.2023 17:20 10,5 C 8,9 C 6,7 C 94 % 1006,6 hPa 0,0 l/m 0 min 2 min 0 W/m 38,6 km/h (5 Bft) 97,87 %
12.01.2023 17:22 10,5 C 8,9 C 6,7 C 94 % 1006,5 hPa 0,0 l/m 0 min 2 min 0 W/m 32,2 km/h (5 Bft) 100,00 %
12.01.2023 17:24 10,5 C 8,9 C 6,7 C 94 % 1006,5 hPa 0,0 l/m 0 min 2 min 0 W/m 32,2 km/h (5 Bft) 97,87 %
12.01.2023 17:26 10,5 C 9,4 C 6,7 C 94 % 1006,5 hPa 0,0 l/m 0 min 2 min 0 W/m 35,4 km/h (5 Bft) 93,62 %
12.01.2023 17:28 10,4 C 9,4 C 6,7 C 94 % 1006,5 hPa 0,0 l/m 0 min 2 min 0 W/m 54,7 km/h (7 Bft) 93,62 %
12.01.2023 17:30 10,5 C 9,4 C 6,7 C 94 % 1006,6 hPa 0,0 l/m 0 min 2 min 0 W/m 25,7 km/h (4 Bft) 93,62 %
12.01.2023 17:32 10,4 C 9,4 C 6,7 C 94 % 1006,5 hPa 0,0 l/m 0 min 2 min 0 W/m 41,8 km/h (6 Bft) 97,83 %
12.01.2023 17:34 10,5 C 9,4 C 6,7 C 94 % 1006,5 hPa 0,0 l/m 0 min 2 min 0 W/m 32,2 km/h (5 Bft) 95,74 %
12.01.2023 17:36 10,5 C 9,4 C 6,7 C 94 % 1006,5 hPa 0,0 l/m 0 min 2 min 0 W/m 38,6 km/h (5 Bft) 95,74 %
12.01.2023 17:38 10,5 C 9,4 C 6,7 C 94 % 1006,4 hPa 0,0 l/m 0 min 2 min 0 W/m 35,4 km/h (5 Bft) 97,87 %
12.01.2023 17:40 10,4 C 9,4 C 6,7 C 94 % 1006,5 hPa 0,0 l/m 0 min 2 min 0 W/m 32,2 km/h (5 Bft) 97,87 %
12.01.2023 17:42 10,4 C 9,4 C 6,7 C 94 % 1006,4 hPa 0,0 l/m 0 min 2 min 0 W/m 32,2 km/h (5 Bft) 97,87 %
12.01.2023 17:44 10,4 C 9,4 C 6,7 C 94 % 1006,5 hPa 0,0 l/m 0 min 2 min 0 W/m 38,6 km/h (5 Bft) 97,83 %
12.01.2023 17:46 10,4 C 9,4 C 6,7 C 94 % 1006,4 hPa 0,0 l/m 0 min 2 min 0 W/m 45,1 km/h (6 Bft) 97,87 %
12.01.2023 17:48 10,5 C 9,4 C 6,7 C 94 % 1006,5 hPa 0,0 l/m 0 min 2 min 0 W/m 38,6 km/h (5 Bft) 97,87 %
12.01.2023 17:50 10,4 C 8,9 C 6,7 C 94 % 1006,5 hPa 0,0 l/m 0 min 2 min 0 W/m 25,7 km/h (4 Bft) 97,87 %
12.01.2023 17:52 10,4 C 8,9 C 6,7 C 94 % 1006,4 hPa 0,0 l/m 0 min 2 min 0 W/m 25,7 km/h (4 Bft) 95,74 %
12.01.2023 17:54 10,4 C 8,9 C 6,7 C 94 % 1006,4 hPa 0,2 l/m 0 min 2 min 0 W/m 25,7 km/h (4 Bft) 97,87 %
12.01.2023 17:56 10,4 C 8,9 C 6,7 C 94 % 1006,3 hPa 0,0 l/m 0 min 2 min 0 W/m 35,4 km/h (5 Bft) 100,00 %
12.01.2023 17:58 10,4 C 8,9 C 6,7 C 94 % 1006,4 hPa 0,0 l/m 0 min 2 min 0 W/m 35,4 km/h (5 Bft) 100,00 %
12.01.2023 18:00 10,4 C 8,9 C 6,7 C 94 % 1006,4 hPa 0,0 l/m 0 min 2 min 0 W/m 35,4 km/h (5 Bft) 100,00 %
12.01.2023 18:02 10,4 C 8,9 C 6,7 C 94 % 1006,4 hPa 0,0 l/m 0 min 2 min 0 W/m 29,0 km/h (5 Bft) 100,00 %
12.01.2023 18:04 10,5 C 8,9 C 6,7 C 94 % 1006,4 hPa 0,0 l/m 0 min 2 min 0 W/m 32,2 km/h (5 Bft) 100,00 %
12.01.2023 18:07 10,5 C 8,9 C 6,7 C 94 % 1006,4 hPa 0,0 l/m 0 min 3 min 0 W/m 45,1 km/h (6 Bft) 98,61 %
12.01.2023 18:08 10,5 C 8,9 C 6,7 C 94 % 1006,4 hPa 0,0 l/m 0 min 1 min 0 W/m 32,2 km/h (5 Bft) 100,00 %
12.01.2023 18:10 10,6 C 9,4 C 6,7 C 94 % 1006,3 hPa 0,0 l/m 0 min 2 min 0 W/m 57,9 km/h (7 Bft) 100,00 %
12.01.2023 18:12 10,6 C 8,9 C 6,7 C 94 % 1006,3 hPa 0,0 l/m 0 min 2 min 0 W/m 45,1 km/h (6 Bft) 41,18 %
12.01.2023 18:14 10,6 C 8,9 C 6,7 C 94 % 1006,3 hPa 0,0 l/m 0 min 2 min 0 W/m 48,3 km/h (6 Bft) 100,00 %
12.01.2023 18:16 10,6 C 8,9 C 6,7 C 94 % 1006,3 hPa 0,0 l/m 0 min 2 min 0 W/m 41,8 km/h (6 Bft) 100,00 %
12.01.2023 18:18 10,6 C 8,9 C 6,7 C 94 % 1006,2 hPa 0,0 l/m 0 min 2 min 0 W/m 35,4 km/h (5 Bft) 100,00 %
12.01.2023 18:20 10,6 C 8,9 C 6,7 C 93 % 1006,3 hPa 0,0 l/m 0 min 2 min 0 W/m 25,7 km/h (4 Bft) 97,87 %
12.01.2023 18:22 10,6 C 9,4 C 6,7 C 93 % 1006,3 hPa 0,0 l/m 0 min 2 min 0 W/m 35,4 km/h (5 Bft) 100,00 %
12.01.2023 18:24 10,6 C 8,9 C 6,7 C 93 % 1006,4 hPa 0,0 l/m 0 min 2 min 0 W/m 32,2 km/h (5 Bft) 100,00 %
12.01.2023 18:26 10,6 C 8,9 C 6,7 C 93 % 1006,3 hPa 0,0 l/m 0 min 2 min 0 W/m 25,7 km/h (4 Bft) 100,00 %
12.01.2023 18:28 10,6 C 8,9 C 6,7 C 94 % 1006,3 hPa 0,2 l/m 0 min 2 min 0 W/m 41,8 km/h (6 Bft) 100,00 %
12.01.2023 18:30 10,6 C 8,9 C 6,7 C 94 % 1006,4 hPa 0,0 l/m 0 min 2 min 0 W/m 25,7 km/h (4 Bft) 100,00 %
12.01.2023 18:32 10,6 C 8,9 C 6,7 C 94 % 1006,3 hPa 0,0 l/m 0 min 2 min 0 W/m 38,6 km/h (5 Bft) 100,00 %
12.01.2023 18:34 10,6 C 8,9 C 6,7 C 94 % 1006,3 hPa 0,0 l/m 0 min 2 min 0 W/m 29,0 km/h (5 Bft) 100,00 %
12.01.2023 18:36 10,5 C 8,9 C 6,7 C 94 % 1006,3 hPa 0,0 l/m 0 min 2 min 0 W/m 38,6 km/h (5 Bft) 100,00 %
12.01.2023 18:38 10,5 C 8,9 C 6,7 C 94 % 1006,3 hPa 0,0 l/m 0 min 2 min 0 W/m 32,2 km/h (5 Bft) 97,87 %
12.01.2023 18:40 10,5 C 8,9 C 6,7 C 94 % 1006,3 hPa 0,0 l/m 0 min 2 min 0 W/m 38,6 km/h (5 Bft) 100,00 %
12.01.2023 18:42 10,5 C 8,9 C 6,7 C 94 % 1006,3 hPa 0,0 l/m 0 min 2 min 0 W/m 38,6 km/h (5 Bft) 100,00 %
12.01.2023 18:44 10,5 C 8,9 C 6,7 C 94 % 1006,3 hPa 0,0 l/m 0 min 2 min 0 W/m 38,6 km/h (5 Bft) 97,87 %
12.01.2023 18:46 10,5 C 8,9 C 6,7 C 94 % 1006,3 hPa 0,2 l/m 0 min 2 min 0 W/m 25,7 km/h (4 Bft) 100,00 %
12.01.2023 18:48 10,4 C 8,9 C 6,7 C 94 % 1006,3 hPa 0,0 l/m 0 min 2 min 0 W/m 32,2 km/h (5 Bft) 100,00 %
12.01.2023 18:50 10,4 C 8,9 C 6,7 C 94 % 1006,2 hPa 0,0 l/m 0 min 2 min 0 W/m 32,2 km/h (5 Bft) 97,87 %
12.01.2023 18:52 10,4 C 8,9 C 6,7 C 94 % 1006,2 hPa 0,0 l/m 0 min 2 min 0 W/m 45,1 km/h (6 Bft) 100,00 %
12.01.2023 18:54 10,4 C 8,9 C 6,7 C 94 % 1006,2 hPa 0,2 l/m 0 min 2 min 0 W/m 22,5 km/h (4 Bft) 97,83 %
12.01.2023 18:56 10,4 C 8,9 C 6,7 C 94 % 1006,3 hPa 0,0 l/m 0 min 2 min 0 W/m 35,4 km/h (5 Bft) 97,87 %
12.01.2023 18:58 10,4 C 8,9 C 6,7 C 95 % 1006,2 hPa 0,0 l/m 0 min 2 min 0 W/m 25,7 km/h (4 Bft) 100,00 %
12.01.2023 19:00 10,4 C 8,9 C 6,7 C 95 % 1006,3 hPa 0,0 l/m 0 min 2 min 0 W/m 35,4 km/h (5 Bft) 100,00 %
12.01.2023 19:02 10,4 C 8,9 C 6,7 C 94 % 1006,2 hPa 0,0 l/m 0 min 2 min 0 W/m 32,2 km/h (5 Bft) 100,00 %
12.01.2023 19:04 10,3 C 8,9 C 6,7 C 95 % 1006,3 hPa 0,0 l/m 0 min 2 min 0 W/m 32,2 km/h (5 Bft) 97,87 %
12.01.2023 19:06 10,3 C 8,9 C 6,7 C 95 % 1006,2 hPa 0,2 l/m 0 min 2 min 0 W/m 32,2 km/h (5 Bft) 97,83 %
12.01.2023 19:08 10,3 C 8,9 C 6,7 C 95 % 1006,3 hPa 0,0 l/m 0 min 2 min 0 W/m 32,2 km/h (5 Bft) 95,74 %
12.01.2023 19:10 10,3 C 8,9 C 6,7 C 95 % 1006,2 hPa 0,0 l/m 0 min 2 min 0 W/m 32,2 km/h (5 Bft) 97,87 %
12.01.2023 19:12 10,3 C 8,9 C 6,7 C 95 % 1006,3 hPa 0,0 l/m 0 min 2 min 0 W/m 35,4 km/h (5 Bft) 95,74 %
12.01.2023 19:14 10,3 C 8,9 C 6,7 C 95 % 1006,3 hPa 0,2 l/m 0 min 2 min 0 W/m 38,6 km/h (5 Bft) 97,87 %
12.01.2023 19:16 10,3 C 8,9 C 6,7 C 95 % 1006,3 hPa 0,0 l/m 0 min 2 min 0 W/m 38,6 km/h (5 Bft) 95,74 %
12.01.2023 19:18 10,3 C 8,9 C 6,7 C 95 % 1006,3 hPa 0,0 l/m 0 min 2 min 0 W/m 38,6 km/h (5 Bft) 95,74 %
12.01.2023 19:20 10,3 C 8,9 C 6,7 C 95 % 1006,3 hPa 0,0 l/m 0 min 2 min 0 W/m 38,6 km/h (5 Bft) 93,48 %
12.01.2023 19:22 10,3 C 8,9 C 6,7 C 95 % 1006,3 hPa 0,0 l/m 0 min 2 min 0 W/m 29,0 km/h (5 Bft) 97,87 %
12.01.2023 19:24 10,3 C 8,9 C 6,7 C 95 % 1006,3 hPa 0,0 l/m 0 min 2 min 0 W/m 38,6 km/h (5 Bft) 93,62 %
12.01.2023 19:26 10,3 C 8,9 C 6,7 C 95 % 1006,2 hPa 0,0 l/m 0 min 2 min 0 W/m 25,7 km/h (4 Bft) 91,49 %
12.01.2023 19:28 10,3 C 8,9 C 6,7 C 95 % 1006,3 hPa 0,2 l/m 0 min 2 min 0 W/m 25,7 km/h (4 Bft) 93,62 %
12.01.2023 19:30 10,3 C 8,9 C 6,7 C 95 % 1006,2 hPa 0,0 l/m 0 min 2 min 0 W/m 51,5 km/h (7 Bft) 93,62 %
12.01.2023 19:32 10,3 C 8,9 C 6,7 C 95 % 1006,2 hPa 0,0 l/m 0 min 2 min 0 W/m 41,8 km/h (6 Bft) 93,48 %
12.01.2023 19:34 10,3 C 8,9 C 6,7 C 95 % 1006,3 hPa 0,0 l/m 0 min 2 min 0 W/m 41,8 km/h (6 Bft) 93,62 %
12.01.2023 19:36 10,3 C 8,9 C 6,7 C 95 % 1006,3 hPa 0,0 l/m 0 min 2 min 0 W/m 41,8 km/h (6 Bft) 93,62 %
12.01.2023 19:38 10,3 C 8,9 C 6,7 C 95 % 1006,2 hPa 0,0 l/m 0 min 2 min 0 W/m 51,5 km/h (7 Bft) 93,62 %
12.01.2023 19:40 10,3 C 8,9 C 6,7 C 95 % 1006,3 hPa 0,0 l/m 0 min 2 min 0 W/m 38,6 km/h (5 Bft) 87,23 %
12.01.2023 19:42 10,3 C 8,9 C 6,7 C 95 % 1006,2 hPa 0,2 l/m 0 min 2 min 0 W/m 29,0 km/h (5 Bft) 91,49 %
12.01.2023 19:44 10,3 C 8,9 C 6,7 C 95 % 1006,2 hPa 0,0 l/m 0 min 2 min 0 W/m 29,0 km/h (5 Bft) 93,48 %
12.01.2023 19:46 10,3 C 8,9 C 6,7 C 95 % 1006,3 hPa 0,0 l/m 0 min 2 min 0 W/m 54,7 km/h (7 Bft) 93,62 %
12.01.2023 19:48 10,3 C 8,9 C 6,7 C 95 % 1006,3 hPa 0,0 l/m 0 min 2 min 0 W/m 38,6 km/h (5 Bft) 95,74 %
12.01.2023 19:50 10,3 C 8,9 C 6,7 C 95 % 1006,3 hPa 0,0 l/m 0 min 2 min 0 W/m 25,7 km/h (4 Bft) 93,62 %
12.01.2023 19:52 10,3 C 8,9 C 6,7 C 95 % 1006,2 hPa 0,0 l/m 0 min 2 min 0 W/m 32,2 km/h (5 Bft) 93,62 %
12.01.2023 19:54 10,3 C 8,9 C 6,7 C 95 % 1006,3 hPa 0,0 l/m 0 min 2 min 0 W/m 35,4 km/h (5 Bft) 95,74 %
12.01.2023 19:56 10,3 C 8,9 C 6,7 C 95 % 1006,2 hPa 0,0 l/m 0 min 2 min 0 W/m 22,5 km/h (4 Bft) 95,74 %
12.01.2023 19:58 10,3 C 8,9 C 6,7 C 95 % 1006,3 hPa 0,0 l/m 0 min 2 min 0 W/m 35,4 km/h (5 Bft) 45,00 %
12.01.2023 20:00 10,3 C 8,9 C 6,7 C 95 % 1006,2 hPa 0,0 l/m 0 min 2 min 0 W/m 41,8 km/h (6 Bft) 97,87 %
12.01.2023 20:02 10,3 C 8,9 C 6,7 C 95 % 1006,2 hPa 0,0 l/m 0 min 2 min 0 W/m 35,4 km/h (5 Bft) 97,87 %
12.01.2023 20:04 10,3 C 8,9 C 6,7 C 95 % 1006,2 hPa 0,0 l/m 0 min 2 min 0 W/m 41,8 km/h (6 Bft) 97,87 %
12.01.2023 20:06 10,3 C 8,9 C 6,7 C 95 % 1006,2 hPa 0,0 l/m 0 min 2 min 0 W/m 38,6 km/h (5 Bft) 97,87 %
12.01.2023 20:08 10,3 C 8,9 C 6,7 C 95 % 1006,2 hPa 0,0 l/m 0 min 2 min 0 W/m 35,4 km/h (5 Bft) 97,87 %
12.01.2023 20:10 10,3 C 8,9 C 6,7 C 95 % 1006,1 hPa 0,2 l/m 0 min 2 min 0 W/m 57,9 km/h (7 Bft) 97,83 %
12.01.2023 20:12 10,3 C 8,9 C 6,7 C 95 % 1006,1 hPa 0,0 l/m 0 min 2 min 0 W/m 51,5 km/h (7 Bft) 95,74 %
12.01.2023 20:14 10,3 C 8,9 C 6,7 C 95 % 1006,1 hPa 0,0 l/m 0 min 2 min 0 W/m 35,4 km/h (5 Bft) 100,00 %
12.01.2023 20:16 10,3 C 8,9 C 6,7 C 95 % 1006,3 hPa 0,0 l/m 0 min 2 min 0 W/m 57,9 km/h (7 Bft) 100,00 %
12.01.2023 20:18 10,3 C 8,9 C 6,7 C 95 % 1006,2 hPa 0,0 l/m 0 min 2 min 0 W/m 29,0 km/h (5 Bft) 97,87 %
12.01.2023 20:20 10,3 C 8,9 C 6,7 C 95 % 1006,2 hPa 0,2 l/m 0 min 2 min 0 W/m 32,2 km/h (5 Bft) 100,00 %
12.01.2023 20:22 10,3 C 8,9 C 6,7 C 95 % 1006,2 hPa 0,0 l/m 0 min 2 min 0 W/m 29,0 km/h (5 Bft) 95,74 %
12.01.2023 20:24 10,3 C 8,9 C 6,7 C 95 % 1006,2 hPa 0,0 l/m 0 min 2 min 0 W/m 22,5 km/h (4 Bft) 100,00 %
12.01.2023 20:26 10,3 C 8,9 C 6,7 C 95 % 1006,2 hPa 0,0 l/m 0 min 2 min 0 W/m 29,0 km/h (5 Bft) 100,00 %
12.01.2023 20:28 10,2 C 8,9 C 6,7 C 95 % 1006,2 hPa 0,0 l/m 0 min 2 min 0 W/m 22,5 km/h (4 Bft) 95,74 %
12.01.2023 20:30 10,2 C 8,9 C 6,7 C 95 % 1006,2 hPa 0,0 l/m 0 min 2 min 0 W/m 45,1 km/h (6 Bft) 97,87 %
12.01.2023 20:32 10,2 C 8,9 C 6,7 C 95 % 1006,1 hPa 0,2 l/m 0 min 2 min 0 W/m 38,6 km/h (5 Bft) 100,00 %
12.01.2023 20:34 10,2 C 8,9 C 6,7 C 95 % 1006,1 hPa 0,0 l/m 0 min 2 min 0 W/m 29,0 km/h (5 Bft) 100,00 %
12.01.2023 20:36 10,2 C 8,9 C 6,7 C 95 % 1006,1 hPa 0,0 l/m 0 min 2 min 0 W/m 22,5 km/h (4 Bft) 100,00 %
12.01.2023 20:38 10,2 C 8,9 C 6,7 C 95 % 1006,2 hPa 0,0 l/m 0 min 2 min 0 W/m 29,0 km/h (5 Bft) 100,00 %
12.01.2023 20:40 10,2 C 8,9 C 6,7 C 95 % 1006,1 hPa 0,0 l/m 0 min 2 min 0 W/m 35,4 km/h (5 Bft) 97,87 %
12.01.2023 20:42 10,2 C 8,9 C 6,7 C 95 % 1006,1 hPa 0,0 l/m 0 min 2 min 0 W/m 25,7 km/h (4 Bft) 100,00 %
12.01.2023 20:44 10,2 C 8,9 C 6,7 C 95 % 1006,2 hPa 0,2 l/m 0 min 2 min 0 W/m 29,0 km/h (5 Bft) 97,87 %
12.01.2023 20:46 10,2 C 8,9 C 6,7 C 95 % 1006,2 hPa 0,0 l/m 0 min 2 min 0 W/m 22,5 km/h (4 Bft) 100,00 %
12.01.2023 20:48 10,2 C 8,9 C 6,7 C 95 % 1006,1 hPa 0,0 l/m 0 min 2 min 0 W/m 29,0 km/h (5 Bft) 100,00 %
12.01.2023 20:50 10,2 C 8,9 C 6,7 C 95 % 1006,0 hPa 0,0 l/m 0 min 2 min 0 W/m 25,7 km/h (4 Bft) 97,87 %
12.01.2023 20:52 10,2 C 8,9 C 6,7 C 95 % 1006,1 hPa 0,0 l/m 0 min 2 min 0 W/m 25,7 km/h (4 Bft) 97,87 %
12.01.2023 20:54 10,2 C 8,9 C 6,7 C 95 % 1006,1 hPa 0,2 l/m 0 min 2 min 0 W/m 41,8 km/h (6 Bft) 97,87 %
12.01.2023 20:56 10,1 C 8,9 C 6,7 C 95 % 1006,0 hPa 0,0 l/m 0 min 2 min 0 W/m 32,2 km/h (5 Bft) 100,00 %
12.01.2023 20:58 10,1 C 8,9 C 6,7 C 95 % 1006,1 hPa 0,0 l/m 0 min 2 min 0 W/m 22,5 km/h (4 Bft) 97,87 %
12.01.2023 21:00 10,1 C 8,9 C 6,7 C 95 % 1006,0 hPa 0,0 l/m 0 min 2 min 0 W/m 32,2 km/h (5 Bft) 100,00 %
12.01.2023 21:02 10,1 C 8,9 C 6,7 C 96 % 1006,0 hPa 0,2 l/m 0 min 2 min 0 W/m 19,3 km/h (3 Bft) 100,00 %
12.01.2023 21:04 10,1 C 8,9 C 6,7 C 96 % 1006,0 hPa 0,0 l/m 0 min 2 min 0 W/m 22,5 km/h (4 Bft) 100,00 %
12.01.2023 21:06 10,1 C 8,9 C 6,7 C 96 % 1006,0 hPa 0,0 l/m 0 min 2 min 0 W/m 19,3 km/h (3 Bft) 100,00 %
12.01.2023 21:08 10,1 C 8,9 C 6,7 C 96 % 1006,1 hPa 0,0 l/m 0 min 0 min 0 W/m 22,5 km/h (4 Bft) 100,00 %
12.01.2023 21:10 10,1 C 8,9 C 6,7 C 96 % 1006,1 hPa 0,2 l/m 0 min 2 min 0 W/m 9,7 km/h (2 Bft) 95,74 %
12.01.2023 21:12 10,1 C 8,9 C 6,7 C 96 % 1006,1 hPa 0,0 l/m 0 min 0 min 0 W/m 19,3 km/h (3 Bft) 97,87 %
12.01.2023 21:14 10,1 C 8,9 C 6,7 C 96 % 1006,1 hPa 0,0 l/m 0 min 0 min 0 W/m 19,3 km/h (3 Bft) 97,83 %
12.01.2023 21:16 10,0 C 8,9 C 6,7 C 96 % 1006,1 hPa 0,0 l/m 0 min 0 min 0 W/m 22,5 km/h (4 Bft) 95,74 %
12.01.2023 21:18 10,0 C 8,9 C 6,7 C 96 % 1006,0 hPa 0,0 l/m 0 min 0 min 0 W/m 29,0 km/h (5 Bft) 97,87 %
12.01.2023 21:20 10,0 C 8,9 C 6,7 C 96 % 1006,1 hPa 0,0 l/m 0 min 0 min 0 W/m 29,0 km/h (5 Bft) 97,87 %
12.01.2023 21:22 9,9 C 8,9 C 6,7 C 96 % 1006,0 hPa 0,0 l/m 0 min 0 min 0 W/m 19,3 km/h (3 Bft) 97,87 %
12.01.2023 21:24 9,9 C 8,9 C 6,7 C 96 % 1005,9 hPa 0,0 l/m 0 min 0 min 0 W/m 19,3 km/h (3 Bft) 97,87 %
12.01.2023 21:26 9,9 C 8,9 C 6,7 C 96 % 1006,0 hPa 0,0 l/m 0 min 0 min 0 W/m 19,3 km/h (3 Bft) 97,87 %
12.01.2023 21:28 9,9 C 8,9 C 6,7 C 96 % 1006,0 hPa 0,0 l/m 0 min 0 min 0 W/m 16,1 km/h (3 Bft) 97,83 %
12.01.2023 21:30 9,9 C 8,9 C 6,7 C 96 % 1006,0 hPa 0,0 l/m 0 min 2 min 0 W/m 19,3 km/h (3 Bft) 97,87 %
12.01.2023 21:32 9,9 C 8,9 C 6,7 C 96 % 1006,0 hPa 0,0 l/m 0 min 2 min 0 W/m 19,3 km/h (3 Bft) 95,74 %
12.01.2023 21:34 9,9 C 8,9 C 6,7 C 96 % 1006,0 hPa 0,0 l/m 0 min 2 min 0 W/m 19,3 km/h (3 Bft) 93,62 %
12.01.2023 21:36 9,9 C 8,9 C 6,7 C 96 % 1006,0 hPa 0,0 l/m 0 min 2 min 0 W/m 19,3 km/h (3 Bft) 97,87 %
12.01.2023 21:38 9,9 C 8,9 C 6,7 C 96 % 1006,0 hPa 0,0 l/m 0 min 2 min 0 W/m 29,0 km/h (5 Bft) 95,74 %
12.01.2023 21:40 9,9 C 8,9 C 6,7 C 96 % 1006,1 hPa 0,0 l/m 0 min 2 min 0 W/m 25,7 km/h (4 Bft) 97,83 %
12.01.2023 21:42 9,9 C 8,9 C 6,7 C 96 % 1006,1 hPa 0,0 l/m 0 min 2 min 0 W/m 22,5 km/h (4 Bft) 95,74 %
12.01.2023 21:44 9,9 C 8,9 C 6,7 C 96 % 1006,0 hPa 0,0 l/m 0 min 2 min 0 W/m 19,3 km/h (3 Bft) 100,00 %
12.01.2023 21:46 9,9 C 8,9 C 6,7 C 96 % 1006,1 hPa 0,0 l/m 0 min 2 min 0 W/m 22,5 km/h (4 Bft) 97,87 %
12.01.2023 21:48 10,0 C 8,9 C 6,7 C 96 % 1006,1 hPa 0,2 l/m 0 min 2 min 0 W/m 29,0 km/h (5 Bft) 97,87 %
12.01.2023 21:50 10,0 C 8,9 C 6,7 C 96 % 1006,1 hPa 0,0 l/m 0 min 2 min 0 W/m 22,5 km/h (4 Bft) 97,87 %
12.01.2023 21:52 10,0 C 8,9 C 6,7 C 96 % 1006,2 hPa 0,0 l/m 0 min 2 min 0 W/m 32,2 km/h (5 Bft) 97,87 %
12.01.2023 21:54 10,0 C 8,9 C 6,7 C 96 % 1006,0 hPa 0,0 l/m 0 min 2 min 0 W/m 35,4 km/h (5 Bft) 95,65 %
12.01.2023 21:56 10,0 C 8,9 C 6,7 C 97 % 1006,1 hPa 0,0 l/m 0 min 2 min 0 W/m 29,0 km/h (5 Bft) 93,62 %
12.01.2023 21:58 10,0 C 8,9 C 6,7 C 97 % 1006,1 hPa 0,0 l/m 0 min 2 min 0 W/m 22,5 km/h (4 Bft) 97,87 %
12.01.2023 22:00 10,1 C 8,9 C 6,7 C 97 % 1006,1 hPa 0,0 l/m 0 min 2 min 0 W/m 25,7 km/h (4 Bft) 97,87 %
12.01.2023 22:02 10,1 C 8,9 C 6,7 C 97 % 1006,1 hPa 0,0 l/m 0 min 2 min 0 W/m 22,5 km/h (4 Bft) 93,62 %
12.01.2023 22:04 10,1 C 8,9 C 6,7 C 97 % 1006,1 hPa 0,0 l/m 0 min 2 min 0 W/m 29,0 km/h (5 Bft) 97,92 %
12.01.2023 22:06 10,1 C 8,9 C 6,7 C 97 % 1006,1 hPa 0,0 l/m 0 min 2 min 0 W/m 29,0 km/h (5 Bft) 100,00 %
12.01.2023 22:08 10,1 C 8,9 C 6,7 C 97 % 1006,1 hPa 0,0 l/m 0 min 2 min 0 W/m 29,0 km/h (5 Bft) 97,87 %
12.01.2023 22:10 10,1 C 8,9 C 6,7 C 97 % 1006,0 hPa 0,0 l/m 0 min 2 min 0 W/m 32,2 km/h (5 Bft) 97,87 %
12.01.2023 22:12 10,1 C 8,9 C 6,7 C 97 % 1006,1 hPa 0,0 l/m 0 min 2 min 0 W/m 16,1 km/h (3 Bft) 95,74 %
12.01.2023 22:14 10,1 C 8,9 C 6,7 C 97 % 1006,0 hPa 0,0 l/m 0 min 2 min 0 W/m 29,0 km/h (5 Bft) 95,74 %
12.01.2023 22:16 10,1 C 8,9 C 6,7 C 97 % 1006,0 hPa 0,0 l/m 0 min 2 min 0 W/m 38,6 km/h (5 Bft) 95,74 %
12.01.2023 22:18 10,1 C 8,9 C 6,7 C 97 % 1006,0 hPa 0,0 l/m 0 min 2 min 0 W/m 16,1 km/h (3 Bft) 97,87 %
12.01.2023 22:20 10,1 C 8,9 C 6,7 C 97 % 1005,9 hPa 0,0 l/m 0 min 2 min 0 W/m 29,0 km/h (5 Bft) 97,83 %
12.01.2023 22:22 10,1 C 8,9 C 6,7 C 97 % 1005,9 hPa 0,0 l/m 0 min 0 min 0 W/m 25,7 km/h (4 Bft) 95,74 %
12.01.2023 22:24 10,1 C 8,9 C 6,7 C 97 % 1006,0 hPa 0,0 l/m 0 min 2 min 0 W/m 25,7 km/h (4 Bft) 93,62 %
12.01.2023 22:26 10,1 C 8,9 C 6,7 C 97 % 1005,9 hPa 0,0 l/m 0 min 2 min 0 W/m 38,6 km/h (5 Bft) 95,74 %
12.01.2023 22:28 10,1 C 8,9 C 6,7 C 97 % 1005,9 hPa 0,0 l/m 0 min 2 min 0 W/m 48,3 km/h (6 Bft) 97,87 %
12.01.2023 22:30 10,1 C 8,9 C 6,7 C 97 % 1005,9 hPa 0,0 l/m 0 min 0 min 0 W/m 32,2 km/h (5 Bft) 97,87 %
12.01.2023 22:32 10,1 C 8,9 C 6,7 C 97 % 1006,0 hPa 0,0 l/m 0 min 0 min 0 W/m 25,7 km/h (4 Bft) 97,87 %
12.01.2023 22:34 10,1 C 8,9 C 6,7 C 97 % 1005,8 hPa 0,0 l/m 0 min 2 min 0 W/m 22,5 km/h (4 Bft) 95,65 %
12.01.2023 22:36 10,1 C 8,9 C 6,7 C 97 % 1005,9 hPa 0,0 l/m 0 min 2 min 0 W/m 22,5 km/h (4 Bft) 97,87 %
12.01.2023 22:38 10,1 C 8,9 C 6,7 C 97 % 1005,8 hPa 0,0 l/m 0 min 2 min 0 W/m 35,4 km/h (5 Bft) 97,87 %
12.01.2023 22:40 10,1 C 8,9 C 6,7 C 97 % 1005,7 hPa 0,0 l/m 0 min 2 min 0 W/m 25,7 km/h (4 Bft) 97,87 %
12.01.2023 22:42 10,1 C 8,9 C 6,7 C 97 % 1005,8 hPa 0,0 l/m 0 min 2 min 0 W/m 19,3 km/h (3 Bft) 97,87 %
12.01.2023 22:44 10,1 C 8,9 C 6,7 C 97 % 1005,7 hPa 0,0 l/m 0 min 2 min 0 W/m 19,3 km/h (3 Bft) 97,87 %
12.01.2023 22:46 10,1 C 8,9 C 6,7 C 97 % 1005,7 hPa 0,0 l/m 0 min 2 min 0 W/m 25,7 km/h (4 Bft) 100,00 %
12.01.2023 22:48 10,1 C 8,9 C 6,7 C 97 % 1005,8 hPa 0,0 l/m 0 min 2 min 0 W/m 22,5 km/h (4 Bft) 95,74 %
12.01.2023 22:50 10,0 C 8,9 C 6,7 C 97 % 1005,8 hPa 0,0 l/m 0 min 2 min 0 W/m 25,7 km/h (4 Bft) 93,62 %
12.01.2023 22:52 10,1 C 8,9 C 6,7 C 97 % 1005,8 hPa 0,0 l/m 0 min 2 min 0 W/m 19,3 km/h (3 Bft) 97,87 %
12.01.2023 22:54 10,1 C 8,9 C 6,7 C 97 % 1005,9 hPa 0,0 l/m 0 min 2 min 0 W/m 16,1 km/h (3 Bft) 97,87 %
12.01.2023 22:56 10,1 C 8,9 C 6,7 C 97 % 1005,8 hPa 0,0 l/m 0 min 0 min 0 W/m 29,0 km/h (5 Bft) 97,87 %
12.01.2023 22:58 10,1 C 8,9 C 6,7 C 97 % 1005,9 hPa 0,0 l/m 0 min 2 min 0 W/m 25,7 km/h (4 Bft) 97,83 %
12.01.2023 23:00 10,1 C 8,9 C 6,7 C 97 % 1005,7 hPa 0,0 l/m 0 min 2 min 0 W/m 29,0 km/h (5 Bft) 97,87 %
12.01.2023 23:02 10,1 C 8,9 C 6,7 C 97 % 1005,9 hPa 0,0 l/m 0 min 0 min 0 W/m 25,7 km/h (4 Bft) 95,74 %
12.01.2023 23:04 10,1 C 9,4 C 6,7 C 97 % 1005,8 hPa 0,0 l/m 0 min 0 min 0 W/m 51,5 km/h (7 Bft) 95,74 %
12.01.2023 23:06 10,1 C 9,4 C 6,7 C 97 % 1005,8 hPa 0,0 l/m 0 min 0 min 0 W/m 38,6 km/h (5 Bft) 94,34 %
12.01.2023 23:08 10,1 C 9,4 C 6,7 C 97 % 1005,7 hPa 0,0 l/m 0 min 2 min 0 W/m 25,7 km/h (4 Bft) 92,68 %
12.01.2023 23:10 10,1 C 9,4 C 6,7 C 97 % 1005,7 hPa 0,0 l/m 0 min 0 min 0 W/m 19,3 km/h (3 Bft) 97,87 %
12.01.2023 23:12 10,1 C 9,4 C 6,7 C 97 % 1005,7 hPa 0,0 l/m 0 min 0 min 0 W/m 29,0 km/h (5 Bft) 97,83 %
12.01.2023 23:14 10,2 C 9,4 C 6,7 C 97 % 1005,7 hPa 0,0 l/m 0 min 0 min 0 W/m 41,8 km/h (6 Bft) 97,87 %
12.01.2023 23:16 10,2 C 9,4 C 6,7 C 97 % 1005,8 hPa 0,0 l/m 0 min 0 min 0 W/m 29,0 km/h (5 Bft) 97,87 %
12.01.2023 23:18 10,2 C 9,4 C 6,7 C 97 % 1005,7 hPa 0,0 l/m 0 min 0 min 0 W/m 35,4 km/h (5 Bft) 95,74 %
12.01.2023 23:20 10,2 C 9,4 C 6,7 C 97 % 1005,7 hPa 0,0 l/m 0 min 0 min 0 W/m 16,1 km/h (3 Bft) 97,87 %
12.01.2023 23:22 10,2 C 9,4 C 6,7 C 96 % 1005,6 hPa 0,0 l/m 0 min 0 min 0 W/m 22,5 km/h (4 Bft) 97,87 %
12.01.2023 23:24 10,2 C 9,4 C 6,7 C 96 % 1005,6 hPa 0,0 l/m 0 min 0 min 0 W/m 29,0 km/h (5 Bft) 97,87 %
12.01.2023 23:26 10,3 C 9,4 C 6,7 C 96 % 1005,7 hPa 0,0 l/m 0 min 0 min 0 W/m 29,0 km/h (5 Bft) 93,48 %
12.01.2023 23:28 10,3 C 9,4 C 6,7 C 96 % 1005,6 hPa 0,0 l/m 0 min 0 min 0 W/m 25,7 km/h (4 Bft) 95,74 %
12.01.2023 23:30 10,3 C 9,4 C 6,7 C 96 % 1005,7 hPa 0,0 l/m 0 min 0 min 0 W/m 29,0 km/h (5 Bft) 97,87 %
12.01.2023 23:32 10,3 C 9,4 C 6,7 C 96 % 1005,8 hPa 0,0 l/m 0 min 0 min 0 W/m 32,2 km/h (5 Bft) 97,87 %
12.01.2023 23:34 10,3 C 9,4 C 6,7 C 96 % 1005,7 hPa 0,0 l/m 0 min 0 min 0 W/m 35,4 km/h (5 Bft) 97,87 %
12.01.2023 23:36 10,3 C 9,4 C 6,7 C 96 % 1005,5 hPa 0,0 l/m 0 min 0 min 0 W/m 32,2 km/h (5 Bft) 97,87 %
12.01.2023 23:38 10,3 C 9,4 C 6,7 C 96 % 1005,6 hPa 0,0 l/m 0 min 2 min 0 W/m 35,4 km/h (5 Bft) 100,00 %
12.01.2023 23:40 10,3 C 9,4 C 6,7 C 96 % 1005,6 hPa 0,0 l/m 0 min 2 min 0 W/m 38,6 km/h (5 Bft) 100,00 %
12.01.2023 23:42 10,3 C 9,4 C 6,7 C 96 % 1005,5 hPa 0,0 l/m 0 min 2 min 0 W/m 29,0 km/h (5 Bft) 100,00 %
12.01.2023 23:44 10,3 C 9,4 C 6,7 C 96 % 1005,7 hPa 0,0 l/m 0 min 2 min 0 W/m 29,0 km/h (5 Bft) 100,00 %
12.01.2023 23:46 10,3 C 9,4 C 6,7 C 96 % 1005,6 hPa 0,0 l/m 0 min 2 min 0 W/m 29,0 km/h (5 Bft) 100,00 %
12.01.2023 23:48 10,3 C 9,4 C 6,7 C 96 % 1005,6 hPa 0,0 l/m 0 min 2 min 0 W/m 38,6 km/h (5 Bft) 100,00 %
12.01.2023 23:50 10,3 C 9,4 C 6,7 C 96 % 1005,6 hPa 0,0 l/m 0 min 2 min 0 W/m 41,8 km/h (6 Bft) 100,00 %
12.01.2023 23:52 10,3 C 9,4 C 6,7 C 96 % 1005,5 hPa 0,0 l/m 0 min 2 min 0 W/m 22,5 km/h (4 Bft) 100,00 %
12.01.2023 23:54 10,3 C 9,4 C 6,7 C 96 % 1005,6 hPa 0,0 l/m 0 min 2 min 0 W/m 25,7 km/h (4 Bft) 94,44 %
12.01.2023 23:56 10,3 C 9,4 C 6,7 C 96 % 1005,4 hPa 0,0 l/m 0 min 2 min 0 W/m 25,7 km/h (4 Bft) 97,83 %
12.01.2023 23:58 10,4 C 9,4 C 6,7 C 96 % 1005,6 hPa 0,0 l/m 0 min 2 min 0 W/m 29,0 km/h (5 Bft) 100,00 %
_ Min-Zeit 00:48 00:22 00:00 00:04 23:56 - - - - 21:10 18:12
Minimum _ 8,2 C 6,7 C 3,3 C 91 % 1005,4 hPa - - - - 9,7 km/h (2 Bft) 41,18 %
_ Max-Zeit 18:10 12:50 11:44 21:56 00:14 00:08 00:00 00:12 13:36 08:20 00:00
Maximum _ 10,6 C 10,0 C 6,7 C 97 % 1012,5 hPa 0,2 l/m 0 min 4 min 78 W/m 74,0 km/h
W (8 Bft)
100,00 %
Durchschnitt _ 9,6 C 8,4 C 5,7 C 94 % 1007,9 hPa #15,0 l/m #0 min. #20:58 h 35 W/m 34,6 km/h (5 Bft) 97,08 %
© 2023 W. Hausmann